| time (UTC) | temp C | wind direction | speed KPH | gust KPH | rain 1hr cm | rain 24hr cm | rain mn cm | humidity % | barometer mb |
| 20260904133409 | 24 | 175 | 0.0 | 14.5 | 0.00 | 0.00 | 0.00 | 67 | 1011.5 |
| 20260904133309 | 24 | 176 | 1.6 | 22.5 | 0.00 | 0.00 | 0.00 | 67 | 1012.1 |
| 20260904133241 | 24 | 223 | 3.2 | 22.5 | 0.00 | 0.00 | 0.00 | 67 | 1011.7 |
| 20260904133210 | 24 | 313 | 4.8 | 22.5 | 0.00 | 0.00 | 0.00 | 67 | 1011.7 |
| 20260904133109 | 24 | 217 | 3.2 | 22.5 | 0.00 | 0.00 | 0.00 | 67 | 1011.7 |
| 20260904133010 | 24 | 235 | 4.8 | 22.5 | 0.00 | 0.00 | 0.00 | 67 | 1012.0 |
| 20260904132909 | 24 | 125 | 0.0 | 22.5 | 0.00 | 0.00 | 0.00 | 67 | 1011.9 |
| 20260904132810 | 24 | 270 | 3.2 | 22.5 | 0.00 | 0.00 | 0.00 | 67 | 1012.1 |
| 20260904132741 | 24 | 262 | 1.6 | 22.5 | 0.00 | 0.00 | 0.00 | 67 | 1012.1 |
| 20260904132709 | 24 | 201 | 0.0 | 22.5 | 0.00 | 0.00 | 0.00 | 67 | 1012.1 |
| 20260904132656 | 24 | 185 | 4.8 | 12.9 | 0.00 | 0.00 | 0.00 | 67 | 1011.8 |
| 20260904132647 | 24 | 221 | 1.6 | 22.5 | 0.00 | 0.00 | 0.00 | 67 | 1011.8 |
| 20260904132631 | 24 | 137 | 1.6 | 22.5 | 0.00 | 0.00 | 0.00 | 67 | 1012.2 |
| 20260904132615 | 24 | 298 | 8.0 | 22.5 | 0.00 | 0.00 | 0.00 | 67 | 1011.8 |
| 20260904132600 | 24 | 192 | 0.0 | 12.9 | 0.00 | 0.00 | 0.00 | 67 | 1012.2 |
| 20260904132333 | 24 | 233 | 0.0 | 12.9 | 0.00 | 0.00 | 0.00 | 67 | 1011.8 |
| 20260904132009 | 24 | 216 | 0.0 | 12.9 | 0.00 | 0.00 | 0.00 | 68 | 1012.0 |
| 20260904131909 | 24 | 192 | 0.0 | 12.9 | 0.00 | 0.00 | 0.00 | 68 | 1011.6 |
| 20260904131810 | 24 | 208 | 0.0 | 12.9 | 0.00 | 0.00 | 0.00 | 68 | 1012.1 |
| 20260904131741 | 24 | 200 | 0.0 | 12.9 | 0.00 | 0.00 | 0.00 | 68 | 1012.0 |
| 20260904131709 | 24 | 192 | 1.6 | 12.9 | 0.00 | 0.00 | 0.00 | 67 | 1012.0 |
| 20260904131610 | 24 | 123 | 4.8 | 12.9 | 0.00 | 0.00 | 0.00 | 68 | 1012.1 |
| 20260904131510 | 24 | 86 | 1.6 | 9.7 | 0.00 | 0.00 | 0.00 | 68 | 1012.0 |
| 20260904131409 | 24 | 329 | 0.0 | 11.3 | 0.00 | 0.00 | 0.00 | 68 | 1011.9 |
| 20260904131310 | 24 | 167 | 0.0 | 24.1 | 0.00 | 0.00 | 0.00 | 68 | 1011.7 |
| 20260904131241 | 24 | 193 | 1.6 | 24.1 | 0.00 | 0.00 | 0.00 | 68 | 1012.0 |
| 20260904131209 | 24 | 175 | 0.0 | 24.1 | 0.00 | 0.00 | 0.00 | 68 | 1012.0 |
| 20260904131110 | 25 | 231 | 4.8 | 24.1 | 0.00 | 0.00 | 0.00 | 67 | 1011.8 |
| 20260904131010 | 25 | 199 | 0.0 | 24.1 | 0.00 | 0.00 | 0.00 | 68 | 1011.9 |
| 20260904130911 | 25 | 193 | 1.6 | 24.1 | 0.00 | 0.00 | 0.00 | 67 | 1011.9 |
| 20260904130809 | 25 | 158 | 3.2 | 24.1 | 0.00 | 0.00 | 0.00 | 67 | 1012.1 |
| 20260904130741 | 25 | 0 | 3.2 | 24.1 | 0.00 | 0.00 | 0.00 | 67 | 1011.8 |
| 20260904130709 | 25 | 196 | 0.0 | 24.1 | 0.00 | 0.00 | 0.00 | 67 | 1011.8 |
| 20260904130609 | 24 | 259 | 1.6 | 24.1 | 0.00 | 0.00 | 0.00 | 67 | 1011.9 |
| 20260904130510 | 24 | 207 | 1.6 | 24.1 | 0.00 | 0.00 | 0.00 | 67 | 1012.0 |
| 20260904130453 | 24 | 214 | 6.4 | 24.1 | 0.00 | 0.00 | 0.00 | 68 | 1012.0 |
| 20260904130437 | 24 | 110 | 1.6 | 20.9 | 0.00 | 0.00 | 0.00 | 68 | 1012.0 |
| 20260904130424 | 24 | 146 | 4.8 | 20.9 | 0.00 | 0.00 | 0.00 | 68 | 1011.9 |
| 20260904130109 | 24 | 226 | 6.4 | 17.7 | 0.00 | 0.00 | 0.00 | 67 | 1012.1 |
| 20260904130009 | 24 | 225 | 4.8 | 17.7 | 0.00 | 0.00 | 0.00 | 67 | 1012.1 |
| 20260904125908 | 24 | 31 | 4.8 | 17.7 | 0.00 | 0.00 | 0.00 | 68 | 1012.3 |
| 20260904125809 | 24 | 194 | 1.6 | 17.7 | 0.00 | 0.00 | 0.00 | 68 | 1012.2 |
| 20260904125741 | 24 | 218 | 1.6 | 17.7 | 0.00 | 0.00 | 0.00 | 68 | 1011.9 |
| 20260904125709 | 24 | 196 | 1.6 | 17.7 | 0.00 | 0.00 | 0.00 | 68 | 1011.9 |
| 20260904125609 | 24 | 213 | 0.0 | 17.7 | 0.00 | 0.00 | 0.00 | 68 | 1012.2 |
| 20260904125509 | 24 | 144 | 1.6 | 22.5 | 0.00 | 0.00 | 0.00 | 68 | 1012.5 |
| 20260904125409 | 24 | 186 | 3.2 | 22.5 | 0.00 | 0.00 | 0.00 | 68 | 1012.2 |
| 20260904125309 | 24 | 189 | 1.6 | 22.5 | 0.00 | 0.00 | 0.00 | 68 | 1012.1 |
| 20260904125241 | 24 | 214 | 3.2 | 22.5 | 0.00 | 0.00 | 0.00 | 68 | 1012.2 |
| 20260904125210 | 24 | 192 | 1.6 | 22.5 | 0.00 | 0.00 | 0.00 | 68 | 1012.2 |
| 20260904125109 | 24 | 211 | 1.6 | 22.5 | 0.00 | 0.00 | 0.00 | 68 | 1012.3 |
| 20260904125010 | 24 | 196 | 8.0 | 22.5 | 0.00 | 0.00 | 0.00 | 68 | 1012.2 |
| 20260904124909 | 24 | 131 | 3.2 | 22.5 | 0.00 | 0.00 | 0.00 | 68 | 1012.4 |
| 20260904124808 | 23 | 101 | 3.2 | 22.5 | 0.00 | 0.00 | 0.00 | 69 | 1012.2 |
| 20260904124741 | 23 | 340 | 4.8 | 22.5 | 0.00 | 0.00 | 0.00 | 69 | 1012.3 |
| 20260904124709 | 23 | 184 | 1.6 | 22.5 | 0.00 | 0.00 | 0.00 | 69 | 1012.3 |
| 20260904124608 | 23 | 212 | 1.6 | 25.7 | 0.00 | 0.00 | 0.00 | 69 | 1012.2 |
| 20260904124543 | 23 | 183 | 0.0 | 25.7 | 0.00 | 0.00 | 0.00 | 69 | 1012.2 |
| 20260904124528 | 23 | 166 | 0.0 | 25.7 | 0.00 | 0.00 | 0.00 | 69 | 1012.3 |
| 20260904124241 | 23 | 170 | 0.0 | 25.7 | 0.00 | 0.00 | 0.00 | 69 | 1012.6 |
| 20260904124208 | 23 | 217 | 9.7 | 25.7 | 0.00 | 0.00 | 0.00 | 69 | 1012.6 |
| 20260904124108 | 23 | 29 | 3.2 | 25.7 | 0.00 | 0.00 | 0.00 | 68 | 1012.3 |
| 20260904124008 | 23 | 212 | 1.6 | 25.7 | 0.00 | 0.00 | 0.00 | 69 | 1012.4 |
| 20260904123908 | 23 | 78 | 3.2 | 25.7 | 0.00 | 0.00 | 0.00 | 68 | 1012.5 |
| 20260904123810 | 23 | 272 | 3.2 | 25.7 | 0.00 | 0.00 | 0.00 | 68 | 1012.2 |
| 20260904123740 | 23 | 344 | 6.4 | 25.7 | 0.00 | 0.00 | 0.00 | 68 | 1012.4 |
| 20260904123709 | 23 | 252 | 14.5 | 25.7 | 0.00 | 0.00 | 0.00 | 68 | 1012.4 |
| 20260904123608 | 24 | 193 | 1.6 | 24.1 | 0.00 | 0.00 | 0.00 | 68 | 1012.3 |
| 20260904123510 | 24 | 200 | 1.6 | 24.1 | 0.00 | 0.00 | 0.00 | 68 | 1012.6 |
| 20260904123432 | 23 | 242 | 6.4 | 16.1 | 0.00 | 0.00 | 0.00 | 68 | 1012.7 |
| 20260904123426 | 24 | 170 | 1.6 | 24.1 | 0.00 | 0.00 | 0.00 | 68 | 1012.3 |
| 20260904123409 | 24 | 244 | 3.2 | 24.1 | 0.00 | 0.00 | 0.00 | 68 | 1012.4 |
| 20260904123355 | 24 | 72 | 1.6 | 24.1 | 0.00 | 0.00 | 0.00 | 68 | 1012.6 |
| 20260904123345 | 24 | 154 | 0.0 | 24.1 | 0.00 | 0.00 | 0.00 | 69 | 1012.6 |
| 20260904123329 | 24 | 200 | 0.0 | 24.1 | 0.00 | 0.00 | 0.00 | 69 | 1012.5 |
| 20260904123314 | 24 | 205 | 0.0 | 24.1 | 0.00 | 0.00 | 0.00 | 69 | 1012.4 |
| 20260904123033 | 24 | 185 | 0.0 | 24.1 | 0.00 | 0.00 | 0.00 | 68 | 1012.6 |
| 20260904123020 | 24 | 192 | 0.0 | 24.1 | 0.00 | 0.00 | 0.00 | 68 | 1012.6 |
| 20260904122747 | 23 | 213 | 1.6 | 24.1 | 0.00 | 0.00 | 0.00 | 69 | 1012.4 |
| 20260904122732 | 23 | 194 | 1.6 | 24.1 | 0.00 | 0.00 | 0.00 | 69 | 1012.6 |
| 20260904122716 | 23 | 256 | 14.5 | 24.1 | 0.00 | 0.00 | 0.00 | 68 | 1012.5 |
| 20260904122204 | 23 | 196 | 1.6 | 16.1 | 0.00 | 0.00 | 0.00 | 68 | 1012.8 |
| 20260904122127 | 23 | 217 | 4.8 | 16.1 | 0.00 | 0.00 | 0.00 | 68 | 1012.6 |
| 20260904122111 | 23 | 192 | 0.0 | 16.1 | 0.00 | 0.00 | 0.00 | 69 | 1012.6 |
| 20260904121840 | 24 | 189 | 0.0 | 11.3 | 0.00 | 0.00 | 0.00 | 68 | 1012.8 |
| 20260904121830 | 23 | 95 | 1.6 | 16.1 | 0.00 | 0.00 | 0.00 | 69 | 1012.7 |
| 20260904121814 | 23 | 207 | 3.2 | 16.1 | 0.00 | 0.00 | 0.00 | 69 | 1012.7 |
| 20260904121801 | 23 | 230 | 1.6 | 16.1 | 0.00 | 0.00 | 0.00 | 68 | 1012.8 |
| 20260904121746 | 24 | 236 | 9.7 | 16.1 | 0.00 | 0.00 | 0.00 | 68 | 1012.7 |
| 20260904121730 | 24 | 232 | 4.8 | 14.5 | 0.00 | 0.00 | 0.00 | 68 | 1012.6 |
| 20260904121713 | 24 | 143 | 4.8 | 11.3 | 0.00 | 0.00 | 0.00 | 68 | 1012.6 |
| 20260904121152 | 24 | 203 | 0.0 | 11.3 | 0.00 | 0.00 | 0.00 | 68 | 1012.6 |
| 20260904121052 | 24 | 200 | 3.2 | 11.3 | 0.00 | 0.00 | 0.00 | 68 | 1013.0 |
| 20260904121033 | 24 | 197 | 0.0 | 17.7 | 0.00 | 0.00 | 0.00 | 68 | 1013.0 |
| 20260904121025 | 24 | 228 | 3.2 | 14.5 | 0.00 | 0.00 | 0.00 | 68 | 1012.7 |
| 20260904121009 | 24 | 153 | 1.6 | 14.5 | 0.00 | 0.00 | 0.00 | 68 | 1012.8 |
| 20260904120953 | 24 | 190 | 0.0 | 17.7 | 0.00 | 0.00 | 0.00 | 68 | 1013.0 |
| 20260904120652 | 24 | 161 | 0.0 | 27.4 | 0.00 | 0.00 | 0.00 | 68 | 1013.1 |
| 20260904120553 | 24 | 65 | 1.6 | 27.4 | 0.00 | 0.00 | 0.00 | 68 | 1013.0 |
| 20260904120452 | 23 | 131 | 3.2 | 27.4 | 0.00 | 0.00 | 0.00 | 68 | 1013.0 |
| 20260904120405 | 23 | 188 | 0.0 | 27.4 | 0.00 | 0.00 | 0.00 | 69 | 1013.1 |
| 20260904120349 | 23 | 194 | 1.6 | 27.4 | 0.00 | 0.00 | 0.00 | 69 | 1012.8 |
| 20260904120337 | 23 | 184 | 1.6 | 27.4 | 0.00 | 0.00 | 0.00 | 69 | 1012.8 |
| 20260904120313 | 23 | 174 | 1.6 | 27.4 | 0.00 | 0.00 | 0.00 | 69 | 1012.8 |
| 20260904120026 | 23 | 85 | 12.9 | 27.4 | 0.00 | 0.00 | 0.00 | 69 | 1013.2 |
| 20260904120018 | 23 | 192 | 0.0 | 27.4 | 0.00 | 0.00 | 0.00 | 69 | 1012.8 |
| 20260904120002 | 23 | 232 | 11.3 | 27.4 | 0.00 | 0.00 | 0.00 | 68 | 1013.0 |
| 20260904115948 | 23 | 85 | 12.9 | 27.4 | 0.00 | 0.00 | 0.00 | 68 | 1013.2 |
| 20260904115647 | 23 | 218 | 1.6 | 24.1 | 0.00 | 0.00 | 0.00 | 69 | 1013.3 |
| 20260904115539 | 23 | 87 | 1.6 | 24.1 | 0.00 | 0.00 | 0.00 | 69 | 1013.1 |
| 20260904115441 | 23 | 102 | 1.6 | 24.1 | 0.00 | 0.00 | 0.00 | 68 | 1013.0 |
| 20260904115340 | 23 | 185 | 3.2 | 24.1 | 0.00 | 0.00 | 0.00 | 68 | 1013.0 |
| 20260904115240 | 23 | 207 | 0.0 | 24.1 | 0.00 | 0.00 | 0.00 | 68 | 1013.1 |
| 20260904115227 | 23 | 165 | 1.6 | 24.1 | 0.00 | 0.00 | 0.00 | 68 | 1013.1 |
| 20260904115216 | 23 | 220 | 8.0 | 20.9 | 0.00 | 0.00 | 0.00 | 68 | 1013.3 |
| 20260904115201 | 24 | 183 | 1.6 | 20.9 | 0.00 | 0.00 | 0.00 | 68 | 1013.0 |
| 20260904115145 | 24 | 245 | 6.4 | 20.9 | 0.00 | 0.00 | 0.00 | 67 | 1013.2 |
| 20260904114909 | 24 | 231 | 3.2 | 11.3 | 0.00 | 0.00 | 0.00 | 67 | 1013.1 |
| 20260904114858 | 24 | 36 | 3.2 | 11.3 | 0.00 | 0.00 | 0.00 | 67 | 1013.1 |
| 20260904114540 | 24 | 204 | 4.8 | 16.1 | 0.00 | 0.00 | 0.00 | 67 | 1013.3 |
| 20260904114441 | 24 | 211 | 1.6 | 16.1 | 0.00 | 0.00 | 0.00 | 67 | 1013.2 |
| 20260904114423 | 24 | 207 | 1.6 | 17.7 | 0.00 | 0.00 | 0.00 | 67 | 1013.2 |
| 20260904114407 | 24 | 141 | 0.0 | 20.9 | 0.00 | 0.00 | 0.00 | 67 | 1013.4 |
| 20260904114355 | 24 | 200 | 0.0 | 20.9 | 0.00 | 0.00 | 0.00 | 67 | 1013.4 |
| 20260904114040 | 24 | 202 | 6.4 | 20.9 | 0.00 | 0.00 | 0.00 | 66 | 1013.2 |
| 20260904113940 | 24 | 179 | 0.0 | 20.9 | 0.00 | 0.00 | 0.00 | 66 | 1013.2 |
| 20260904113840 | 24 | 170 | 1.6 | 20.9 | 0.00 | 0.00 | 0.00 | 66 | 1013.2 |
| 20260904113820 | 25 | 298 | 3.2 | 16.1 | 0.00 | 0.00 | 0.00 | 64 | 1013.5 |
| 20260904113801 | 24 | 157 | 1.6 | 20.9 | 0.00 | 0.00 | 0.00 | 66 | 1013.2 |
| 20260904113748 | 24 | 295 | 8.0 | 20.9 | 0.00 | 0.00 | 0.00 | 66 | 1013.4 |
| 20260904113732 | 24 | 319 | 9.7 | 20.9 | 0.00 | 0.00 | 0.00 | 66 | 1013.1 |
| 20260904113715 | 25 | 108 | 9.7 | 20.9 | 0.00 | 0.00 | 0.00 | 65 | 1013.2 |
| 20260904113440 | 25 | 160 | 1.6 | 16.1 | 0.00 | 0.00 | 0.00 | 64 | 1013.5 |
| 20260904113141 | 25 | 236 | 0.0 | 16.1 | 0.00 | 0.00 | 0.00 | 64 | 1013.4 |
| 20260904113114 | 25 | 124 | 3.2 | 16.1 | 0.00 | 0.00 | 0.00 | 63 | 1013.3 |
| 20260904113100 | 25 | 257 | 1.6 | 16.1 | 0.00 | 0.00 | 0.00 | 63 | 1013.3 |
| 20260904112726 | 25 | 94 | 1.6 | 16.1 | 0.00 | 0.00 | 0.00 | 63 | 1013.5 |
| 20260904112656 | 25 | 169 | 3.2 | 12.9 | 0.00 | 0.00 | 0.00 | 63 | 1013.8 |
| 20260904112651 | 25 | 191 | 3.2 | 16.1 | 0.00 | 0.00 | 0.00 | 63 | 1013.5 |
| 20260904112637 | 25 | 259 | 3.2 | 16.1 | 0.00 | 0.00 | 0.00 | 63 | 1013.4 |
| 20260904112621 | 25 | 90 | 0.0 | 16.1 | 0.00 | 0.00 | 0.00 | 63 | 1013.5 |
| 20260904112606 | 25 | 164 | 1.6 | 11.3 | 0.00 | 0.00 | 0.00 | 62 | 1013.8 |
| 20260904112538 | 25 | 178 | 1.6 | 11.3 | 0.00 | 0.00 | 0.00 | 63 | 1013.3 |
| 20260904112308 | 25 | 122 | 4.8 | 11.3 | 0.00 | 0.00 | 0.00 | 63 | 1013.6 |
| 20260904112252 | 25 | 60 | 0.0 | 12.9 | 0.00 | 0.00 | 0.00 | 63 | 1013.5 |
| 20260904112237 | 25 | 210 | 3.2 | 12.9 | 0.00 | 0.00 | 0.00 | 64 | 1013.3 |
| 20260904111748 | 25 | 182 | 0.0 | 20.9 | 0.00 | 0.00 | 0.00 | 63 | 1013.7 |
| 20260904111429 | 25 | 224 | 1.6 | 20.9 | 0.00 | 0.00 | 0.00 | 63 | 1013.7 |
| 20260904111329 | 25 | 130 | 0.0 | 22.5 | 0.00 | 0.00 | 0.00 | 63 | 1013.6 |
| 20260904111303 | 25 | 163 | 0.0 | 22.5 | 0.00 | 0.00 | 0.00 | 63 | 1014.1 |
| 20260904111251 | 25 | 138 | 3.2 | 22.5 | 0.00 | 0.00 | 0.00 | 63 | 1014.1 |
| 20260904111240 | 25 | 306 | 1.6 | 22.5 | 0.00 | 0.00 | 0.00 | 63 | 1013.7 |
| 20260904111225 | 25 | 189 | 1.6 | 22.5 | 0.00 | 0.00 | 0.00 | 64 | 1013.8 |
| 20260904111209 | 25 | 64 | 1.6 | 22.5 | 0.00 | 0.00 | 0.00 | 64 | 1013.6 |
| 20260904111153 | 25 | 193 | 1.6 | 22.5 | 0.00 | 0.00 | 0.00 | 64 | 1013.6 |
| 20260904110919 | 25 | 227 | 4.8 | 22.5 | 0.00 | 0.00 | 0.00 | 63 | 1013.6 |
| 20260904110909 | 25 | 150 | 1.6 | 22.5 | 0.00 | 0.00 | 0.00 | 64 | 1013.6 |
| 20260904110410 | 25 | 219 | 11.3 | 20.9 | 0.00 | 0.00 | 0.00 | 63 | 1013.5 |
| 20260904110343 | 25 | 316 | 1.6 | 14.5 | 0.00 | 0.00 | 0.00 | 63 | 1013.7 |
| 20260904110046 | 25 | 191 | 3.2 | 11.3 | 0.00 | 0.00 | 0.00 | 63 | 1013.7 |
| 20260904105806 | 25 | 196 | 0.0 | 9.7 | 0.00 | 0.00 | 0.00 | 63 | 1013.6 |
| 20260904105752 | 25 | 176 | 0.0 | 9.7 | 0.00 | 0.00 | 0.00 | 63 | 1013.6 |
| 20260904105740 | 25 | 200 | 4.8 | 9.7 | 0.00 | 0.00 | 0.00 | 63 | 1013.8 |
| 20260904105725 | 25 | 181 | 1.6 | 6.4 | 0.00 | 0.00 | 0.00 | 63 | 1013.7 |
| 20260904105708 | 25 | 221 | 0.0 | 14.5 | 0.00 | 0.00 | 0.00 | 63 | 1013.6 |
| 20260904105213 | 25 | 211 | 1.6 | 14.5 | 0.00 | 0.00 | 0.00 | 63 | 1014.2 |
| 20260904105129 | 25 | 74 | 1.6 | 14.5 | 0.00 | 0.00 | 0.00 | 63 | 1013.8 |
| 20260904105028 | 25 | 169 | 0.0 | 14.5 | 0.00 | 0.00 | 0.00 | 64 | 1013.7 |
| 20260904104928 | 25 | 317 | 1.6 | 14.5 | 0.00 | 0.00 | 0.00 | 64 | 1013.7 |
| 20260904104907 | 25 | 199 | 0.0 | 14.5 | 0.00 | 0.00 | 0.00 | 64 | 1013.8 |
| 20260904104837 | 25 | 205 | 0.0 | 14.5 | 0.00 | 0.00 | 0.00 | 63 | 1013.9 |
| 20260904104521 | 25 | 220 | 0.0 | 4.8 | 0.00 | 0.00 | 0.00 | 66 | 1013.9 |
| 20260904104517 | 25 | 241 | 6.4 | 14.5 | 0.00 | 0.00 | 0.00 | 64 | 1013.9 |
| 20260904104501 | 25 | 198 | 1.6 | 4.8 | 0.00 | 0.00 | 0.00 | 64 | 1014.0 |
| 20260904104445 | 25 | 178 | 1.6 | 4.8 | 0.00 | 0.00 | 0.00 | 65 | 1013.9 |
| 20260904104427 | 25 | 220 | 0.0 | 4.8 | 0.00 | 0.00 | 0.00 | 66 | 1013.9 |
| 20260904104117 | 24 | 193 | 3.2 | 11.3 | 0.00 | 0.00 | 0.00 | 65 | 1013.8 |
| 20260904104016 | 24 | 201 | 0.0 | 20.9 | 0.00 | 0.00 | 0.00 | 65 | 1013.8 |
| 20260904103917 | 24 | 196 | 0.0 | 20.9 | 0.00 | 0.00 | 0.00 | 65 | 1013.9 |
| 20260904103852 | 24 | 197 | 1.6 | 20.9 | 0.00 | 0.00 | 0.00 | 65 | 1013.9 |
| 20260904103827 | 24 | 217 | 0.0 | 20.9 | 0.00 | 0.00 | 0.00 | 65 | 1013.9 |
| 20260904103812 | 24 | 205 | 0.0 | 20.9 | 0.00 | 0.00 | 0.00 | 65 | 1014.2 |
| 20260904103757 | 24 | 175 | 0.0 | 33.8 | 0.00 | 0.00 | 0.00 | 65 | 1014.1 |
| 20260904103741 | 24 | 261 | 0.0 | 33.8 | 0.00 | 0.00 | 0.00 | 65 | 1013.9 |
| 20260904103456 | 24 | 155 | 4.8 | 33.8 | 0.00 | 0.00 | 0.00 | 66 | 1014.1 |
| 20260904102917 | 23 | 198 | 4.8 | 33.8 | 0.00 | 0.00 | 0.00 | 65 | 1014.0 |
| 20260904102816 | 23 | 239 | 9.7 | 33.8 | 0.00 | 0.00 | 0.00 | 65 | 1013.7 |
| 20260904102717 | 23 | 289 | 6.4 | 33.8 | 0.00 | 0.00 | 0.00 | 66 | 1014.1 |
| 20260904102616 | 23 | 176 | 17.7 | 33.8 | 0.00 | 0.00 | 0.00 | 66 | 1013.9 |
| 20260904102553 | 23 | 198 | 0.0 | 9.7 | 0.00 | 0.00 | 0.00 | 69 | 1014.2 |
| 20260904102538 | 23 | 185 | 0.0 | 9.7 | 0.00 | 0.00 | 0.00 | 68 | 1014.2 |
| 20260904102522 | 23 | 216 | 1.6 | 12.9 | 0.00 | 0.00 | 0.00 | 68 | 1014.0 |
| 20260904102459 | 23 | 145 | 1.6 | 12.9 | 0.00 | 0.00 | 0.00 | 68 | 1014.0 |
| 20260904102442 | 23 | 209 | 0.0 | 12.9 | 0.00 | 0.00 | 0.00 | 68 | 1014.2 |
| 20260904102206 | 23 | 235 | 4.8 | 12.9 | 0.00 | 0.00 | 0.00 | 69 | 1014.1 |
| 20260904101716 | 23 | 216 | 1.6 | 17.7 | 0.00 | 0.00 | 0.00 | 69 | 1014.1 |
| 20260904101616 | 23 | 131 | 4.8 | 17.7 | 0.00 | 0.00 | 0.00 | 69 | 1014.3 |
| 20260904101554 | 23 | 47 | 1.6 | 17.7 | 0.00 | 0.00 | 0.00 | 69 | 1014.5 |
| 20260904101537 | 22 | 192 | 0.0 | 17.7 | 0.00 | 0.00 | 0.00 | 69 | 1014.0 |
| 20260904101216 | 22 | 167 | 1.6 | 17.7 | 0.00 | 0.00 | 0.00 | 70 | 1014.1 |
| 20260904101116 | 22 | 162 | 1.6 | 17.7 | 0.00 | 0.00 | 0.00 | 70 | 1014.3 |
| 20260904101053 | 22 | 271 | 1.6 | 17.7 | 0.00 | 0.00 | 0.00 | 70 | 1014.2 |
| 20260904101038 | 22 | 180 | 0.0 | 17.7 | 0.00 | 0.00 | 0.00 | 71 | 1014.1 |
| 20260904100716 | 22 | 232 | 1.6 | 22.5 | 0.00 | 0.00 | 0.00 | 72 | 1014.3 |
| 20260904100617 | 22 | 196 | 0.0 | 22.5 | 0.00 | 0.00 | 0.00 | 72 | 1014.5 |
| 20260904100517 | 22 | 99 | 1.6 | 22.5 | 0.00 | 0.00 | 0.00 | 72 | 1014.5 |
| 20260904100416 | 22 | 189 | 0.0 | 22.5 | 0.00 | 0.00 | 0.00 | 73 | 1014.3 |
| 20260904100317 | 22 | 196 | 1.6 | 22.5 | 0.00 | 0.00 | 0.00 | 73 | 1014.3 |
| 20260904100216 | 22 | 234 | 9.7 | 22.5 | 0.00 | 0.00 | 0.00 | 72 | 1014.3 |
| 20260904100116 | 22 | 266 | 4.8 | 22.5 | 0.00 | 0.00 | 0.00 | 73 | 1014.2 |
| 20260904100016 | 22 | 294 | 3.2 | 22.5 | 0.00 | 0.00 | 0.00 | 73 | 1014.2 |
| 20260904095916 | 22 | 198 | 11.3 | 22.5 | 0.00 | 0.00 | 0.00 | 72 | 1014.3 |
| 20260904095817 | 22 | 210 | 3.2 | 14.5 | 0.00 | 0.00 | 0.00 | 72 | 1014.5 |
| 20260904095717 | 22 | 203 | 3.2 | 14.5 | 0.00 | 0.00 | 0.00 | 72 | 1014.5 |
| 20260904095616 | 22 | 203 | 0.0 | 12.9 | 0.00 | 0.00 | 0.00 | 73 | 1014.5 |
| 20260904095516 | 22 | 199 | 4.8 | 24.1 | 0.00 | 0.00 | 0.00 | 72 | 1014.3 |
| 20260904095416 | 22 | 210 | 6.4 | 24.1 | 0.00 | 0.00 | 0.00 | 73 | 1014.5 |
| 20260904095359 | 22 | 234 | 6.4 | 17.7 | 0.00 | 0.00 | 0.00 | 72 | 1014.7 |
| 20260904095349 | 22 | 202 | 3.2 | 24.1 | 0.00 | 0.00 | 0.00 | 73 | 1014.3 |
| 20260904095328 | 22 | 180 | 1.6 | 24.1 | 0.00 | 0.00 | 0.00 | 73 | 1014.6 |
| 20260904095312 | 22 | 189 | 0.0 | 24.1 | 0.00 | 0.00 | 0.00 | 74 | 1014.6 |
| 20260904095048 | 22 | 199 | 0.0 | 24.1 | 0.00 | 0.00 | 0.00 | 74 | 1014.5 |
| 20260904095032 | 21 | 218 | 1.6 | 25.7 | 0.00 | 0.00 | 0.00 | 74 | 1014.5 |
| 20260904095017 | 21 | 223 | 4.8 | 25.7 | 0.00 | 0.00 | 0.00 | 74 | 1014.8 |
| 20260904094952 | 21 | 198 | 3.2 | 25.7 | 0.00 | 0.00 | 0.00 | 74 | 1014.8 |
| 20260904094936 | 21 | 229 | 4.8 | 25.7 | 0.00 | 0.00 | 0.00 | 74 | 1014.7 |
| 20260904094919 | 21 | 225 | 6.4 | 25.7 | 0.00 | 0.00 | 0.00 | 74 | 1014.6 |
| 20260904094902 | 21 | 264 | 8.0 | 25.7 | 0.00 | 0.00 | 0.00 | 74 | 1014.6 |
| 20260904094847 | 21 | 232 | 6.4 | 25.7 | 0.00 | 0.00 | 0.00 | 74 | 1014.6 |
| 20260904094824 | 22 | 201 | 3.2 | 25.7 | 0.00 | 0.00 | 0.00 | 73 | 1014.7 |
| 20260904094808 | 22 | 218 | 6.4 | 25.7 | 0.00 | 0.00 | 0.00 | 73 | 1014.5 |
| 20260904094312 | 22 | 28 | 4.8 | 20.9 | 0.00 | 0.00 | 0.00 | 73 | 1014.7 |
| 20260904093517 | 22 | 222 | 6.4 | 17.7 | 0.00 | 0.00 | 0.00 | 72 | 1014.7 |
| 20260904093416 | 22 | 138 | 1.6 | 17.7 | 0.00 | 0.00 | 0.00 | 72 | 1014.5 |
| 20260904093317 | 22 | 184 | 1.6 | 17.7 | 0.00 | 0.00 | 0.00 | 72 | 1014.9 |
| 20260904093216 | 22 | 180 | 1.6 | 17.7 | 0.00 | 0.00 | 0.00 | 73 | 1015.0 |
| 20260904093116 | 22 | 235 | 0.0 | 17.7 | 0.00 | 0.00 | 0.00 | 73 | 1014.7 |
| 20260904093054 | 22 | 212 | 12.9 | 17.7 | 0.00 | 0.00 | 0.00 | 72 | 1014.7 |
| 20260904093037 | 22 | 154 | 1.6 | 14.5 | 0.00 | 0.00 | 0.00 | 72 | 1014.7 |
| 20260904092717 | 22 | 210 | 0.0 | 14.5 | 0.00 | 0.00 | 0.00 | 73 | 1015.1 |
| 20260904092614 | 22 | 222 | 3.2 | 14.5 | 0.00 | 0.00 | 0.00 | 73 | 1014.9 |
| 20260904092514 | 22 | 181 | 1.6 | 14.5 | 0.00 | 0.00 | 0.00 | 73 | 1014.7 |
| 20260904092414 | 22 | 144 | 0.0 | 11.3 | 0.00 | 0.00 | 0.00 | 73 | 1014.9 |
| 20260904092314 | 22 | 215 | 0.0 | 11.3 | 0.00 | 0.00 | 0.00 | 73 | 1014.9 |
| 20260904092214 | 22 | 195 | 3.2 | 12.9 | 0.00 | 0.00 | 0.00 | 73 | 1014.9 |
| 20260904092113 | 22 | 204 | 0.0 | 17.7 | 0.00 | 0.00 | 0.00 | 73 | 1015.2 |
| 20260904092014 | 22 | 204 | 0.0 | 17.7 | 0.00 | 0.00 | 0.00 | 73 | 1015.0 |
| 20260904091916 | 22 | 197 | 0.0 | 22.5 | 0.00 | 0.00 | 0.00 | 74 | 1015.2 |
| 20260904091814 | 22 | 193 | 0.0 | 22.5 | 0.00 | 0.00 | 0.00 | 74 | 1014.9 |
| 20260904091715 | 22 | 212 | 1.6 | 22.5 | 0.00 | 0.00 | 0.00 | 74 | 1015.0 |
| 20260904091614 | 21 | 197 | 0.0 | 22.5 | 0.00 | 0.00 | 0.00 | 74 | 1015.0 |
| 20260904091514 | 21 | 215 | 8.0 | 22.5 | 0.00 | 0.00 | 0.00 | 74 | 1015.2 |
| 20260904091414 | 21 | 120 | 1.6 | 22.5 | 0.00 | 0.00 | 0.00 | 74 | 1015.2 |
| 20260904091313 | 21 | 180 | 3.2 | 22.5 | 0.00 | 0.00 | 0.00 | 74 | 1015.0 |
| 20260904091237 | 21 | 225 | 11.3 | 22.5 | 0.00 | 0.00 | 0.00 | 74 | 1015.1 |
| 20260904091222 | 21 | 248 | 4.8 | 22.5 | 0.00 | 0.00 | 0.00 | 74 | 1015.1 |
| 20260904091206 | 21 | 251 | 12.9 | 22.5 | 0.00 | 0.00 | 0.00 | 73 | 1015.2 |
| 20260904090931 | 21 | 317 | 3.2 | 22.5 | 0.00 | 0.00 | 0.00 | 74 | 1015.2 |
| 20260904090907 | 21 | 115 | 4.8 | 22.5 | 0.00 | 0.00 | 0.00 | 75 | 1015.4 |
| 20260904090852 | 21 | 195 | 0.0 | 22.5 | 0.00 | 0.00 | 0.00 | 75 | 1015.3 |
| 20260904090836 | 21 | 196 | 0.0 | 22.5 | 0.00 | 0.00 | 0.00 | 74 | 1015.1 |
| 20260904090822 | 21 | 267 | 1.6 | 22.5 | 0.00 | 0.00 | 0.00 | 74 | 1015.3 |
| 20260904090334 | 22 | 235 | 1.6 | 17.7 | 0.00 | 0.00 | 0.00 | 74 | 1015.2 |
| 20260904090049 | 22 | 202 | 4.8 | 17.7 | 0.00 | 0.00 | 0.00 | 74 | 1015.2 |
| 20260904090033 | 22 | 220 | 6.4 | 17.7 | 0.00 | 0.00 | 0.00 | 74 | 1015.3 |
| 20260904085716 | 22 | 237 | 1.6 | 17.7 | 0.00 | 0.00 | 0.00 | 74 | 1015.3 |
| 20260904085615 | 22 | 177 | 0.0 | 17.7 | 0.00 | 0.00 | 0.00 | 74 | 1015.2 |
| 20260904085513 | 22 | 161 | 0.0 | 17.7 | 0.00 | 0.00 | 0.00 | 74 | 1015.4 |
| 20260904085456 | 22 | 218 | 9.7 | 16.1 | 0.00 | 0.00 | 0.00 | 73 | 1015.3 |
| 20260904085440 | 22 | 128 | 3.2 | 16.1 | 0.00 | 0.00 | 0.00 | 73 | 1015.1 |
| 20260904085214 | 22 | 213 | 3.2 | 4.8 | 0.00 | 0.00 | 0.00 | 73 | 1015.2 |
| 20260904085114 | 22 | 193 | 0.0 | 4.8 | 0.00 | 0.00 | 0.00 | 73 | 1015.1 |
| 20260904085015 | 22 | 203 | 0.0 | 4.8 | 0.00 | 0.00 | 0.00 | 73 | 1015.1 |
| 20260904085002 | 22 | 201 | 0.0 | 0.0 | 0.00 | 0.00 | 0.00 | 73 | 1015.1 |
| 20260904084953 | 22 | 206 | 3.2 | 4.8 | 0.00 | 0.00 | 0.00 | 73 | 1015.3 |
| 20260904084937 | 22 | 139 | 0.0 | 1.6 | 0.00 | 0.00 | 0.00 | 73 | 1015.3 |
| 20260904084918 | 22 | 201 | 0.0 | 0.0 | 0.00 | 0.00 | 0.00 | 73 | 1015.1 |
| 20260904084409 | 22 | 154 | 0.0 | 17.7 | 0.00 | 0.00 | 0.00 | 73 | 1015.2 |
| 20260904084308 | 22 | 172 | 0.0 | 17.7 | 0.00 | 0.00 | 0.00 | 73 | 1015.3 |
| 20260904084240 | 22 | 204 | 3.2 | 17.7 | 0.00 | 0.00 | 0.00 | 73 | 1015.3 |
| 20260904084207 | 22 | 244 | 4.8 | 12.9 | 0.00 | 0.00 | 0.00 | 73 | 1015.3 |
| 20260904084108 | 22 | 176 | 1.6 | 14.5 | 0.00 | 0.00 | 0.00 | 72 | 1015.3 |
| 20260904084006 | 22 | 137 | 0.0 | 24.1 | 0.00 | 0.00 | 0.00 | 73 | 1015.2 |
| 20260904083907 | 22 | 196 | 1.6 | 24.1 | 0.00 | 0.00 | 0.00 | 73 | 1015.2 |
| 20260904083807 | 22 | 208 | 0.0 | 24.1 | 0.00 | 0.00 | 0.00 | 72 | 1015.4 |
| 20260904083739 | 22 | 223 | 3.2 | 24.1 | 0.00 | 0.00 | 0.00 | 72 | 1015.4 |
| 20260904083706 | 22 | 214 | 3.2 | 24.1 | 0.00 | 0.00 | 0.00 | 72 | 1015.5 |
| 20260904083634 | 23 | 198 | 3.2 | 9.7 | 0.00 | 0.00 | 0.00 | 72 | 1015.6 |
| 20260904083630 | 22 | 219 | 0.0 | 14.5 | 0.00 | 0.00 | 0.00 | 72 | 1015.5 |
| 20260904083626 | 22 | 217 | 4.8 | 14.5 | 0.00 | 0.00 | 0.00 | 73 | 1015.6 |
| 20260904083618 | 22 | 212 | 1.6 | 24.1 | 0.00 | 0.00 | 0.00 | 72 | 1015.3 |
| 20260904083603 | 22 | 190 | 0.0 | 24.1 | 0.00 | 0.00 | 0.00 | 72 | 1015.3 |
| 20260904083546 | 22 | 227 | 3.2 | 24.1 | 0.00 | 0.00 | 0.00 | 72 | 1015.5 |
| 20260904083314 | 22 | 246 | 3.2 | 24.1 | 0.00 | 0.00 | 0.00 | 71 | 1015.3 |
| 20260904083305 | 22 | 240 | 4.8 | 24.1 | 0.00 | 0.00 | 0.00 | 71 | 1015.3 |
| 20260904083249 | 22 | 65 | 11.3 | 24.1 | 0.00 | 0.00 | 0.00 | 71 | 1015.2 |
| 20260904083233 | 22 | 230 | 3.2 | 22.5 | 0.00 | 0.00 | 0.00 | 71 | 1015.2 |
| 20260904083218 | 23 | 251 | 6.4 | 22.5 | 0.00 | 0.00 | 0.00 | 71 | 1014.9 |
| 20260904083203 | 23 | 259 | 9.7 | 16.1 | 0.00 | 0.00 | 0.00 | 71 | 1015.6 |
| 20260904082934 | 23 | 218 | 0.0 | 9.7 | 0.00 | 0.00 | 0.00 | 72 | 1015.4 |
| 20260904082918 | 22 | 184 | 0.0 | 14.5 | 0.00 | 0.00 | 0.00 | 72 | 1015.3 |
| 20260904082642 | 22 | 198 | 1.6 | 14.5 | 0.00 | 0.00 | 0.00 | 72 | 1015.4 |
| 20260904082627 | 22 | 199 | 0.0 | 14.5 | 0.00 | 0.00 | 0.00 | 72 | 1015.5 |
| 20260904082400 | 22 | 217 | 1.6 | 14.5 | 0.00 | 0.00 | 0.00 | 71 | 1015.5 |
| 20260904082343 | 22 | 188 | 0.0 | 14.5 | 0.00 | 0.00 | 0.00 | 72 | 1015.6 |
| 20260904082108 | 22 | 215 | 1.6 | 14.5 | 0.00 | 0.00 | 0.00 | 73 | 1015.5 |
| 20260904082054 | 22 | 196 | 0.0 | 14.5 | 0.00 | 0.00 | 0.00 | 73 | 1015.6 |
| 20260904081826 | 22 | 227 | 11.3 | 14.5 | 0.00 | 0.00 | 0.00 | 72 | 1015.4 |
| 20260904081523 | 23 | 215 | 1.6 | 11.3 | 0.00 | 0.00 | 0.00 | 71 | 1015.6 |
| 20260904081518 | 23 | 205 | 1.6 | 11.3 | 0.00 | 0.00 | 0.00 | 72 | 1015.6 |
| 20260904081502 | 23 | 196 | 0.0 | 11.3 | 0.00 | 0.00 | 0.00 | 72 | 1015.6 |
| 20260904081446 | 23 | 217 | 6.4 | 11.3 | 0.00 | 0.00 | 0.00 | 71 | 1015.6 |
| 20260904081206 | 23 | 278 | 0.0 | 11.3 | 0.00 | 0.00 | 0.00 | 71 | 1015.4 |
| 20260904081106 | 23 | 191 | 0.0 | 11.3 | 0.00 | 0.00 | 0.00 | 72 | 1015.7 |
| 20260904081007 | 23 | 210 | 4.8 | 20.9 | 0.00 | 0.00 | 0.00 | 71 | 1015.7 |
| 20260904080951 | 22 | 196 | 0.0 | 20.9 | 0.00 | 0.00 | 0.00 | 72 | 1015.6 |
| 20260904080936 | 22 | 188 | 0.0 | 20.9 | 0.00 | 0.00 | 0.00 | 73 | 1015.6 |
| 20260904080920 | 22 | 191 | 0.0 | 20.9 | 0.00 | 0.00 | 0.00 | 74 | 1015.6 |
| 20260904080606 | 22 | 195 | 0.0 | 20.9 | 0.00 | 0.00 | 0.00 | 73 | 1015.5 |
| 20260904080507 | 22 | 191 | 0.0 | 20.9 | 0.00 | 0.00 | 0.00 | 73 | 1015.6 |
| 20260904080406 | 22 | 192 | 0.0 | 20.9 | 0.00 | 0.00 | 0.00 | 75 | 1015.7 |
| 20260904080306 | 21 | 236 | 8.0 | 20.9 | 0.00 | 0.00 | 0.00 | 75 | 1015.7 |
| 20260904080238 | 21 | 196 | 0.0 | 20.9 | 0.00 | 0.00 | 0.00 | 75 | 1015.7 |
| 20260904080206 | 21 | 194 | 0.0 | 20.9 | 0.00 | 0.00 | 0.00 | 75 | 1015.7 |
| 20260904080106 | 21 | 207 | 1.6 | 20.9 | 0.00 | 0.00 | 0.00 | 75 | 1015.4 |
| 20260904080042 | 21 | 89 | 3.2 | 6.4 | 0.00 | 0.00 | 0.00 | 76 | 1015.5 |
| 20260904080026 | 21 | 203 | 1.6 | 6.4 | 0.00 | 0.00 | 0.00 | 76 | 1015.5 |
| 20260904080010 | 21 | 216 | 3.2 | 6.4 | 0.00 | 0.00 | 0.00 | 76 | 1015.8 |
| 20260904075953 | 21 | 200 | 0.0 | 6.4 | 0.00 | 0.00 | 0.00 | 76 | 1015.8 |
| 20260904075945 | 21 | 201 | 0.0 | 6.4 | 0.00 | 0.00 | 0.00 | 76 | 1015.8 |
| 20260904075930 | 21 | 225 | 3.2 | 6.4 | 0.00 | 0.00 | 0.00 | 75 | 1015.7 |
| 20260904075914 | 21 | 215 | 0.0 | 9.7 | 0.00 | 0.00 | 0.00 | 76 | 1015.6 |
| 20260904075420 | 21 | 202 | 0.0 | 14.5 | 0.00 | 0.00 | 0.00 | 77 | 1015.7 |
| 20260904075107 | 21 | 210 | 1.6 | 14.5 | 0.00 | 0.00 | 0.00 | 77 | 1015.8 |
| 20260904075006 | 21 | 227 | 4.8 | 14.5 | 0.00 | 0.00 | 0.00 | 78 | 1015.8 |
| 20260904074907 | 20 | 184 | 3.2 | 14.5 | 0.00 | 0.00 | 0.00 | 78 | 1015.7 |
| 20260904074807 | 20 | 221 | 4.8 | 14.5 | 0.00 | 0.00 | 0.00 | 79 | 1015.8 |
| 20260904074751 | 20 | 204 | 0.0 | 14.5 | 0.00 | 0.00 | 0.00 | 79 | 1015.8 |
| 20260904074743 | 20 | 184 | 0.0 | 14.5 | 0.00 | 0.00 | 0.00 | 79 | 1015.8 |
| 20260904074727 | 20 | 224 | 1.6 | 14.5 | 0.00 | 0.00 | 0.00 | 80 | 1015.5 |
| 20260904074405 | 20 | 242 | 1.6 | 11.3 | 0.00 | 0.00 | 0.00 | 81 | 1016.0 |
| 20260904074306 | 19 | 195 | 0.0 | 11.3 | 0.00 | 0.00 | 0.00 | 81 | 1015.5 |
| 20260904074226 | 19 | 194 | 0.0 | 11.3 | 0.00 | 0.00 | 0.00 | 81 | 1015.5 |
| 20260904074219 | 19 | 214 | 6.4 | 11.3 | 0.00 | 0.00 | 0.00 | 82 | 1015.6 |
| 20260904074213 | 19 | 173 | 0.0 | 11.3 | 0.00 | 0.00 | 0.00 | 81 | 1015.6 |
| 20260904074158 | 19 | 196 | 0.0 | 11.3 | 0.00 | 0.00 | 0.00 | 82 | 1015.7 |
| 20260904074144 | 19 | 208 | 3.2 | 11.3 | 0.00 | 0.00 | 0.00 | 81 | 1015.9 |
| 20260904074127 | 19 | 204 | 3.2 | 11.3 | 0.00 | 0.00 | 0.00 | 82 | 1015.9 |
| 20260904074101 | 19 | 234 | 4.8 | 11.3 | 0.00 | 0.00 | 0.00 | 82 | 1015.7 |
| 20260904074053 | 19 | 209 | 0.0 | 11.3 | 0.00 | 0.00 | 0.00 | 82 | 1015.6 |
| 20260904074037 | 19 | 222 | 3.2 | 11.3 | 0.00 | 0.00 | 0.00 | 82 | 1015.8 |
| 20260904074022 | 19 | 226 | 6.4 | 11.3 | 0.00 | 0.00 | 0.00 | 81 | 1015.7 |
| 20260904074006 | 19 | 194 | 0.0 | 11.3 | 0.00 | 0.00 | 0.00 | 82 | 1015.8 |
| 20260904073952 | 19 | 208 | 1.6 | 11.3 | 0.00 | 0.00 | 0.00 | 82 | 1015.6 |
| 20260904073726 | 19 | 190 | 0.0 | 4.8 | 0.00 | 0.00 | 0.00 | 82 | 1016.1 |
| 20260904073231 | 19 | 214 | 0.0 | 3.2 | 0.00 | 0.00 | 0.00 | 82 | 1015.7 |
| 20260904073216 | 19 | 207 | 1.6 | 3.2 | 0.00 | 0.00 | 0.00 | 82 | 1015.8 |
| 20260904073159 | 19 | 214 | 0.0 | 3.2 | 0.00 | 0.00 | 0.00 | 82 | 1015.8 |
| 20260904072406 | 19 | 196 | 0.0 | 3.2 | 0.00 | 0.00 | 0.00 | 82 | 1016.0 |
| 20260904072306 | 19 | 217 | 0.0 | 3.2 | 0.00 | 0.00 | 0.00 | 82 | 1016.0 |
| 20260904072226 | 19 | 208 | 0.0 | 3.2 | 0.00 | 0.00 | 0.00 | 82 | 1015.9 |
| 20260904072207 | 19 | 205 | 1.6 | 4.8 | 0.00 | 0.00 | 0.00 | 82 | 1015.9 |
| 20260904072106 | 19 | 207 | 0.0 | 6.4 | 0.00 | 0.00 | 0.00 | 82 | 1016.0 |
| 20260904072006 | 19 | 196 | 0.0 | 6.4 | 0.00 | 0.00 | 0.00 | 82 | 1016.1 |
| 20260904071906 | 19 | 211 | 0.0 | 6.4 | 0.00 | 0.00 | 0.00 | 82 | 1015.9 |
| 20260904071806 | 19 | 205 | 0.0 | 6.4 | 0.00 | 0.00 | 0.00 | 82 | 1015.8 |
| 20260904071727 | 19 | 206 | 0.0 | 6.4 | 0.00 | 0.00 | 0.00 | 82 | 1015.8 |
| 20260904071706 | 19 | 208 | 0.0 | 9.7 | 0.00 | 0.00 | 0.00 | 82 | 1015.8 |
| 20260904071642 | 19 | 203 | 0.0 | 9.7 | 0.00 | 0.00 | 0.00 | 82 | 1016.2 |
| 20260904071626 | 19 | 205 | 0.0 | 9.7 | 0.00 | 0.00 | 0.00 | 82 | 1015.9 |
| 20260904071306 | 18 | 201 | 0.0 | 9.7 | 0.00 | 0.00 | 0.00 | 82 | 1016.0 |
| 20260904071226 | 18 | 218 | 3.2 | 9.7 | 0.00 | 0.00 | 0.00 | 82 | 1016.0 |
| 20260904071206 | 18 | 196 | 0.0 | 9.7 | 0.00 | 0.00 | 0.00 | 82 | 1016.0 |
| 20260904071054 | 19 | 199 | 1.6 | 9.7 | 0.00 | 0.00 | 0.00 | 82 | 1016.0 |
| 20260904070954 | 19 | 227 | 3.2 | 9.7 | 0.00 | 0.00 | 0.00 | 82 | 1015.9 |
| 20260904070854 | 19 | 204 | 1.6 | 9.7 | 0.00 | 0.00 | 0.00 | 82 | 1016.0 |
| 20260904070755 | 19 | 200 | 0.0 | 9.7 | 0.00 | 0.00 | 0.00 | 81 | 1015.7 |
| 20260904070725 | 19 | 239 | 4.8 | 9.7 | 0.00 | 0.00 | 0.00 | 81 | 1015.7 |
| 20260904070653 | 19 | 195 | 0.0 | 9.7 | 0.00 | 0.00 | 0.00 | 82 | 1015.9 |
| 20260904070553 | 19 | 198 | 0.0 | 9.7 | 0.00 | 0.00 | 0.00 | 82 | 1015.9 |
| 20260904070455 | 19 | 196 | 0.0 | 9.7 | 0.00 | 0.00 | 0.00 | 82 | 1015.9 |
| 20260904070354 | 19 | 195 | 0.0 | 9.7 | 0.00 | 0.00 | 0.00 | 82 | 1015.9 |
| 20260904070328 | 18 | 200 | 0.0 | 4.8 | 0.00 | 0.00 | 0.00 | 82 | 1016.0 |
| 20260904070322 | 18 | 191 | 0.0 | 4.8 | 0.00 | 0.00 | 0.00 | 83 | 1016.0 |
| 20260904070316 | 19 | 206 | 0.0 | 9.7 | 0.00 | 0.00 | 0.00 | 82 | 1015.8 |
| 20260904070301 | 19 | 191 | 0.0 | 9.7 | 0.00 | 0.00 | 0.00 | 82 | 1015.8 |
| 20260904070252 | 19 | 198 | 0.0 | 9.7 | 0.00 | 0.00 | 0.00 | 82 | 1015.7 |
| 20260904070237 | 19 | 204 | 0.0 | 9.7 | 0.00 | 0.00 | 0.00 | 81 | 1016.0 |
| 20260904070000 | 19 | 226 | 6.4 | 9.7 | 0.00 | 0.00 | 0.00 | 81 | 1015.7 |
| 20260904065943 | 19 | 203 | 3.2 | 4.8 | 0.00 | 0.00 | 0.00 | 81 | 1015.8 |
| 20260904065927 | 19 | 221 | 3.2 | 4.8 | 0.00 | 0.00 | 0.00 | 81 | 1015.8 |
| 20260904065918 | 19 | 208 | 3.2 | 4.8 | 0.00 | 0.00 | 0.00 | 81 | 1015.9 |
| 20260904065902 | 19 | 200 | 1.6 | 4.8 | 0.00 | 0.00 | 0.00 | 81 | 1015.8 |
| 20260904065847 | 19 | 209 | 1.6 | 4.8 | 0.00 | 0.00 | 0.00 | 81 | 1016.0 |
| 20260904065830 | 19 | 197 | 0.0 | 4.8 | 0.00 | 0.00 | 0.00 | 82 | 1015.8 |
| 20260904065343 | 18 | 187 | 0.0 | 4.8 | 0.00 | 0.00 | 0.00 | 82 | 1016.0 |
| 20260904065327 | 18 | 206 | 1.6 | 4.8 | 0.00 | 0.00 | 0.00 | 83 | 1016.0 |
| 20260904065311 | 18 | 231 | 3.2 | 4.8 | 0.00 | 0.00 | 0.00 | 83 | 1015.9 |
| 20260904065255 | 18 | 190 | 0.0 | 4.8 | 0.00 | 0.00 | 0.00 | 83 | 1016.1 |
| 20260904065240 | 18 | 244 | 0.0 | 4.8 | 0.00 | 0.00 | 0.00 | 83 | 1016.0 |
| 20260904065010 | 18 | 196 | 0.0 | 6.4 | 0.00 | 0.00 | 0.00 | 83 | 1015.8 |
| 20260904064954 | 18 | 191 | 1.6 | 6.4 | 0.00 | 0.00 | 0.00 | 83 | 1015.8 |
| 20260904064227 | 18 | 205 | 0.0 | 6.4 | 0.00 | 0.00 | 0.00 | 84 | 1015.8 |
| 20260904064155 | 18 | 174 | 0.0 | 6.4 | 0.00 | 0.00 | 0.00 | 84 | 1016.0 |
| 20260904064054 | 18 | 188 | 0.0 | 6.4 | 0.00 | 0.00 | 0.00 | 84 | 1016.1 |
| 20260904063954 | 18 | 196 | 0.0 | 6.4 | 0.00 | 0.00 | 0.00 | 84 | 1016.0 |
| 20260904063854 | 18 | 181 | 0.0 | 6.4 | 0.00 | 0.00 | 0.00 | 84 | 1015.9 |
| 20260904063754 | 18 | 210 | 0.0 | 6.4 | 0.00 | 0.00 | 0.00 | 84 | 1016.0 |
| 20260904063727 | 18 | 203 | 1.6 | 6.4 | 0.00 | 0.00 | 0.00 | 84 | 1016.0 |
| 20260904063654 | 18 | 186 | 0.0 | 6.4 | 0.00 | 0.00 | 0.00 | 84 | 1015.9 |
| 20260904063553 | 18 | 202 | 3.2 | 6.4 | 0.00 | 0.00 | 0.00 | 84 | 1016.0 |
| 20260904063455 | 18 | 203 | 0.0 | 6.4 | 0.00 | 0.00 | 0.00 | 84 | 1015.9 |
| 20260904063354 | 18 | 214 | 4.8 | 6.4 | 0.00 | 0.00 | 0.00 | 84 | 1015.8 |
| 20260904063337 | 18 | 200 | 0.0 | 3.2 | 0.00 | 0.00 | 0.00 | 84 | 1015.9 |
| 20260904063323 | 18 | 206 | 0.0 | 3.2 | 0.00 | 0.00 | 0.00 | 84 | 1015.9 |
| 20260904063314 | 18 | 206 | 1.6 | 3.2 | 0.00 | 0.00 | 0.00 | 84 | 1015.8 |
| 20260904062954 | 18 | 184 | 0.0 | 3.2 | 0.00 | 0.00 | 0.00 | 84 | 1016.0 |
| 20260904062855 | 18 | 208 | 0.0 | 3.2 | 0.00 | 0.00 | 0.00 | 84 | 1015.8 |
| 20260904062754 | 18 | 204 | 1.6 | 3.2 | 0.00 | 0.00 | 0.00 | 84 | 1015.8 |
| 20260904062726 | 18 | 190 | 0.0 | 3.2 | 0.00 | 0.00 | 0.00 | 84 | 1015.8 |
| 20260904062654 | 18 | 203 | 1.6 | 3.2 | 0.00 | 0.00 | 0.00 | 84 | 1015.8 |
| 20260904062554 | 18 | 185 | 0.0 | 3.2 | 0.00 | 0.00 | 0.00 | 84 | 1015.8 |
| 20260904062454 | 18 | 200 | 0.0 | 4.8 | 0.00 | 0.00 | 0.00 | 84 | 1015.8 |
| 20260904062354 | 18 | 199 | 0.0 | 4.8 | 0.00 | 0.00 | 0.00 | 85 | 1016.0 |
| 20260904062254 | 17 | 195 | 0.0 | 4.8 | 0.00 | 0.00 | 0.00 | 84 | 1015.9 |
| 20260904062226 | 17 | 191 | 0.0 | 4.8 | 0.00 | 0.00 | 0.00 | 84 | 1015.9 |
| 20260904062154 | 17 | 178 | 0.0 | 4.8 | 0.00 | 0.00 | 0.00 | 85 | 1016.0 |
| 20260904062053 | 17 | 200 | 0.0 | 4.8 | 0.00 | 0.00 | 0.00 | 85 | 1015.9 |
| 20260904061954 | 17 | 205 | 1.6 | 4.8 | 0.00 | 0.00 | 0.00 | 85 | 1015.7 |
| 20260904061855 | 17 | 201 | 0.0 | 4.8 | 0.00 | 0.00 | 0.00 | 85 | 1016.0 |
| 20260904061753 | 17 | 197 | 0.0 | 4.8 | 0.00 | 0.00 | 0.00 | 85 | 1015.7 |
| 20260904061726 | 17 | 202 | 0.0 | 4.8 | 0.00 | 0.00 | 0.00 | 85 | 1015.7 |
| 20260904061654 | 17 | 204 | 0.0 | 4.8 | 0.00 | 0.00 | 0.00 | 85 | 1015.8 |
| 20260904061554 | 17 | 216 | 3.2 | 4.8 | 0.00 | 0.00 | 0.00 | 85 | 1015.9 |
| 20260904061454 | 17 | 227 | 0.0 | 4.8 | 0.00 | 0.00 | 0.00 | 85 | 1015.9 |
| 20260904061354 | 17 | 200 | 0.0 | 4.8 | 0.00 | 0.00 | 0.00 | 85 | 1015.9 |
| 20260904061254 | 17 | 181 | 0.0 | 4.8 | 0.00 | 0.00 | 0.00 | 85 | 1015.9 |
| 20260904061226 | 17 | 188 | 0.0 | 4.8 | 0.00 | 0.00 | 0.00 | 85 | 1015.9 |
| 20260904061154 | 17 | 187 | 0.0 | 4.8 | 0.00 | 0.00 | 0.00 | 85 | 1015.8 |
| 20260904061054 | 17 | 196 | 0.0 | 4.8 | 0.00 | 0.00 | 0.00 | 85 | 1015.8 |
| 20260904060954 | 17 | 231 | 1.6 | 1.6 | 0.00 | 0.00 | 0.00 | 85 | 1015.8 |
| 20260904060854 | 17 | 195 | 0.0 | 1.6 | 0.00 | 0.00 | 0.00 | 85 | 1015.6 |
| 20260904060754 | 17 | 201 | 0.0 | 1.6 | 0.00 | 0.00 | 0.00 | 85 | 1015.7 |
| 20260904060727 | 17 | 208 | 0.0 | 1.6 | 0.00 | 0.00 | 0.00 | 85 | 1015.7 |
| 20260904060654 | 17 | 206 | 1.6 | 1.6 | 0.00 | 0.00 | 0.00 | 85 | 1015.8 |
| 20260904060555 | 17 | 191 | 0.0 | 1.6 | 0.00 | 0.00 | 0.00 | 85 | 1016.0 |
| 20260904060454 | 17 | 201 | 0.0 | 1.6 | 0.00 | 0.00 | 0.00 | 85 | 1015.8 |
| 20260904060354 | 17 | 212 | 1.6 | 1.6 | 0.00 | 0.00 | 0.00 | 85 | 1015.8 |
| 20260904060254 | 17 | 199 | 0.0 | 1.6 | 0.00 | 0.00 | 0.00 | 85 | 1015.7 |
| 20260904060226 | 17 | 200 | 0.0 | 1.6 | 0.00 | 0.00 | 0.00 | 85 | 1015.7 |
| 20260904060154 | 17 | 200 | 0.0 | 1.6 | 0.00 | 0.00 | 0.00 | 85 | 1015.7 |
| 20260904060053 | 17 | 193 | 0.0 | 1.6 | 0.00 | 0.00 | 0.00 | 85 | 1015.8 |
| 20260904055955 | 17 | 192 | 0.0 | 1.6 | 0.00 | 0.00 | 0.00 | 85 | 1015.8 |
| 20260904055854 | 17 | 195 | 0.0 | 1.6 | 0.00 | 0.00 | 0.00 | 85 | 1015.7 |
| 20260904055754 | 17 | 195 | 0.0 | 1.6 | 0.00 | 0.00 | 0.00 | 85 | 1015.8 |
| 20260904055726 | 17 | 196 | 0.0 | 1.6 | 0.00 | 0.00 | 0.00 | 85 | 1015.8 |
| 20260904055656 | 17 | 193 | 0.0 | 1.6 | 0.00 | 0.00 | 0.00 | 86 | 1015.9 |
| 20260904055554 | 17 | 199 | 0.0 | 1.6 | 0.00 | 0.00 | 0.00 | 86 | 1015.8 |
| 20260904055454 | 17 | 202 | 0.0 | 3.2 | 0.00 | 0.00 | 0.00 | 86 | 1016.0 |
| 20260904055354 | 17 | 191 | 0.0 | 3.2 | 0.00 | 0.00 | 0.00 | 86 | 1015.8 |
| 20260904055328 | 17 | 196 | 0.0 | 3.2 | 0.00 | 0.00 | 0.00 | 86 | 1015.9 |
| 20260904055315 | 17 | 201 | 0.0 | 3.2 | 0.00 | 0.00 | 0.00 | 86 | 1015.9 |
| 20260904055306 | 17 | 211 | 0.0 | 3.2 | 0.00 | 0.00 | 0.00 | 86 | 1015.8 |
| 20260904055251 | 17 | 188 | 0.0 | 3.2 | 0.00 | 0.00 | 0.00 | 86 | 1015.9 |
| 20260904055015 | 17 | 204 | 0.0 | 4.8 | 0.00 | 0.00 | 0.00 | 86 | 1015.7 |
| 20260904054726 | 17 | 196 | 0.0 | 4.8 | 0.00 | 0.00 | 0.00 | 86 | 1015.6 |
| 20260904054654 | 17 | 191 | 0.0 | 4.8 | 0.00 | 0.00 | 0.00 | 86 | 1015.8 |
| 20260904054554 | 17 | 196 | 0.0 | 4.8 | 0.00 | 0.00 | 0.00 | 86 | 1015.7 |
| 20260904054454 | 17 | 198 | 0.0 | 4.8 | 0.00 | 0.00 | 0.00 | 86 | 1015.5 |
| 20260904054354 | 17 | 202 | 0.0 | 6.4 | 0.00 | 0.00 | 0.00 | 86 | 1015.4 |
| 20260904054254 | 17 | 196 | 0.0 | 6.4 | 0.00 | 0.00 | 0.00 | 86 | 1015.6 |
| 20260904054226 | 17 | 203 | 0.0 | 6.4 | 0.00 | 0.00 | 0.00 | 86 | 1015.6 |
| 20260904054154 | 17 | 203 | 0.0 | 6.4 | 0.00 | 0.00 | 0.00 | 86 | 1015.6 |
| 20260904054054 | 17 | 203 | 0.0 | 6.4 | 0.00 | 0.00 | 0.00 | 86 | 1015.6 |
| 20260904053954 | 17 | 196 | 0.0 | 6.4 | 0.00 | 0.00 | 0.00 | 86 | 1015.5 |
| 20260904053938 | 17 | 195 | 0.0 | 11.3 | 0.00 | 0.00 | 0.00 | 86 | 1015.6 |
| 20260904053922 | 17 | 191 | 0.0 | 11.3 | 0.00 | 0.00 | 0.00 | 86 | 1015.5 |
| 20260904053907 | 17 | 205 | 0.0 | 11.3 | 0.00 | 0.00 | 0.00 | 86 | 1015.5 |
| 20260904053635 | 17 | 214 | 3.2 | 11.3 | 0.00 | 0.00 | 0.00 | 86 | 1015.4 |
| 20260904053627 | 17 | 196 | 0.0 | 11.3 | 0.00 | 0.00 | 0.00 | 86 | 1015.5 |
| 20260904053611 | 17 | 205 | 4.8 | 11.3 | 0.00 | 0.00 | 0.00 | 86 | 1015.4 |
| 20260904053555 | 17 | 209 | 4.8 | 11.3 | 0.00 | 0.00 | 0.00 | 86 | 1015.5 |
| 20260904053540 | 17 | 201 | 0.0 | 11.3 | 0.00 | 0.00 | 0.00 | 86 | 1015.4 |
| 20260904053314 | 17 | 200 | 3.2 | 11.3 | 0.00 | 0.00 | 0.00 | 86 | 1015.5 |
| 20260904052955 | 17 | 229 | 3.2 | 4.8 | 0.00 | 0.00 | 0.00 | 86 | 1015.5 |
| 20260904052854 | 17 | 207 | 0.0 | 6.4 | 0.00 | 0.00 | 0.00 | 86 | 1015.4 |
| 20260904052755 | 17 | 215 | 0.0 | 6.4 | 0.00 | 0.00 | 0.00 | 85 | 1015.6 |
| 20260904052725 | 17 | 206 | 0.0 | 6.4 | 0.00 | 0.00 | 0.00 | 85 | 1015.6 |
| 20260904052656 | 17 | 204 | 0.0 | 6.4 | 0.00 | 0.00 | 0.00 | 86 | 1015.5 |
| 20260904052554 | 17 | 204 | 0.0 | 6.4 | 0.00 | 0.00 | 0.00 | 85 | 1015.6 |
| 20260904052530 | 17 | 180 | 0.0 | 6.4 | 0.00 | 0.00 | 0.00 | 85 | 1015.6 |
| 20260904052514 | 17 | 207 | 0.0 | 6.4 | 0.00 | 0.00 | 0.00 | 85 | 1015.5 |
| 20260904052226 | 17 | 200 | 0.0 | 6.4 | 0.00 | 0.00 | 0.00 | 85 | 1015.5 |
| 20260904052154 | 17 | 198 | 0.0 | 6.4 | 0.00 | 0.00 | 0.00 | 85 | 1015.6 |
| 20260904052055 | 17 | 206 | 0.0 | 6.4 | 0.00 | 0.00 | 0.00 | 85 | 1015.7 |
| 20260904052027 | 17 | 208 | 0.0 | 3.2 | 0.00 | 0.00 | 0.00 | 85 | 1015.8 |
| 20260904052019 | 17 | 198 | 0.0 | 6.4 | 0.00 | 0.00 | 0.00 | 85 | 1015.7 |
| 20260904052002 | 17 | 200 | 0.0 | 3.2 | 0.00 | 0.00 | 0.00 | 85 | 1015.6 |
| 20260904051945 | 17 | 204 | 0.0 | 3.2 | 0.00 | 0.00 | 0.00 | 85 | 1015.8 |
| 20260904051655 | 17 | 206 | 0.0 | 3.2 | 0.00 | 0.00 | 0.00 | 85 | 1015.7 |
| 20260904051633 | 17 | 205 | 0.0 | 3.2 | 0.00 | 0.00 | 0.00 | 86 | 1015.6 |
| 20260904051624 | 17 | 198 | 0.0 | 3.2 | 0.00 | 0.00 | 0.00 | 85 | 1015.4 |
| 20260904051609 | 17 | 208 | 1.6 | 3.2 | 0.00 | 0.00 | 0.00 | 85 | 1015.6 |
| 20260904051552 | 17 | 210 | 0.0 | 3.2 | 0.00 | 0.00 | 0.00 | 85 | 1015.5 |
| 20260904051536 | 17 | 234 | 0.0 | 3.2 | 0.00 | 0.00 | 0.00 | 85 | 1015.7 |
| 20260904051523 | 17 | 204 | 0.0 | 3.2 | 0.00 | 0.00 | 0.00 | 85 | 1015.7 |
| 20260904051514 | 17 | 204 | 0.0 | 3.2 | 0.00 | 0.00 | 0.00 | 85 | 1015.6 |
| 20260904051459 | 17 | 207 | 1.6 | 3.2 | 0.00 | 0.00 | 0.00 | 85 | 1015.5 |
| 20260904051223 | 17 | 210 | 3.2 | 3.2 | 0.00 | 0.00 | 0.00 | 85 | 1015.5 |
| 20260904051207 | 17 | 197 | 0.0 | 3.2 | 0.00 | 0.00 | 0.00 | 85 | 1015.5 |
| 20260904051153 | 17 | 205 | 0.0 | 3.2 | 0.00 | 0.00 | 0.00 | 85 | 1015.5 |
| 20260904050923 | 17 | 201 | 0.0 | 1.6 | 0.00 | 0.00 | 0.00 | 85 | 1015.5 |
| 20260904050907 | 17 | 197 | 0.0 | 1.6 | 0.00 | 0.00 | 0.00 | 86 | 1015.8 |
| 20260904050852 | 17 | 201 | 0.0 | 1.6 | 0.00 | 0.00 | 0.00 | 86 | 1015.6 |
| 20260904050351 | 17 | 204 | 0.0 | 3.2 | 0.00 | 0.00 | 0.00 | 86 | 1015.6 |
| 20260904050336 | 17 | 205 | 0.0 | 3.2 | 0.00 | 0.00 | 0.00 | 86 | 1015.6 |
| 20260904045754 | 17 | 205 | 0.0 | 6.4 | 0.00 | 0.00 | 0.00 | 86 | 1015.5 |
| 20260904045727 | 17 | 204 | 0.0 | 6.4 | 0.00 | 0.00 | 0.00 | 86 | 1015.5 |
| 20260904045656 | 17 | 167 | 0.0 | 6.4 | 0.00 | 0.00 | 0.00 | 86 | 1015.4 |
| 20260904045555 | 17 | 184 | 0.0 | 6.4 | 0.00 | 0.00 | 0.00 | 86 | 1015.8 |
| 20260904045455 | 17 | 197 | 0.0 | 6.4 | 0.00 | 0.00 | 0.00 | 86 | 1015.6 |
| 20260904045437 | 17 | 206 | 0.0 | 6.4 | 0.00 | 0.00 | 0.00 | 86 | 1015.6 |
| 20260904045421 | 17 | 200 | 0.0 | 6.4 | 0.00 | 0.00 | 0.00 | 86 | 1015.6 |
| 20260904045408 | 17 | 205 | 0.0 | 6.4 | 0.00 | 0.00 | 0.00 | 86 | 1015.6 |
| 20260904045055 | 17 | 220 | 0.0 | 6.4 | 0.00 | 0.00 | 0.00 | 86 | 1015.4 |
| 20260904044956 | 17 | 212 | 0.0 | 6.4 | 0.00 | 0.00 | 0.00 | 86 | 1015.5 |
| 20260904044941 | 17 | 205 | 1.6 | 6.4 | 0.00 | 0.00 | 0.00 | 86 | 1015.5 |
| 20260904044925 | 17 | 222 | 3.2 | 4.8 | 0.00 | 0.00 | 0.00 | 86 | 1015.7 |
| 20260904044909 | 17 | 235 | 1.6 | 4.8 | 0.00 | 0.00 | 0.00 | 86 | 1015.7 |
| 20260904044554 | 17 | 212 | 3.2 | 4.8 | 0.00 | 0.00 | 0.00 | 86 | 1015.7 |
| 20260904044454 | 17 | 204 | 0.0 | 3.2 | 0.00 | 0.00 | 0.00 | 86 | 1015.7 |
| 20260904044355 | 17 | 206 | 0.0 | 3.2 | 0.00 | 0.00 | 0.00 | 86 | 1015.7 |
| 20260904044254 | 17 | 206 | 0.0 | 3.2 | 0.00 | 0.00 | 0.00 | 86 | 1016.0 |
| 20260904044226 | 17 | 207 | 0.0 | 3.2 | 0.00 | 0.00 | 0.00 | 86 | 1016.0 |
| 20260904044155 | 17 | 205 | 0.0 | 3.2 | 0.00 | 0.00 | 0.00 | 86 | 1016.0 |
| 20260904044054 | 17 | 194 | 0.0 | 3.2 | 0.00 | 0.00 | 0.00 | 86 | 1016.0 |
| 20260904043955 | 17 | 202 | 0.0 | 1.6 | 0.00 | 0.00 | 0.00 | 86 | 1016.1 |
| 20260904043854 | 17 | 195 | 0.0 | 1.6 | 0.00 | 0.00 | 0.00 | 86 | 1015.9 |
| 20260904043832 | 16 | 195 | 1.6 | 3.2 | 0.00 | 0.00 | 0.00 | 86 | 1015.9 |
| 20260904043828 | 16 | 228 | 0.0 | 3.2 | 0.00 | 0.00 | 0.00 | 86 | 1015.5 |
| 20260904043805 | 16 | 207 | 0.0 | 1.6 | 0.00 | 0.00 | 0.00 | 86 | 1016.1 |
| 20260904043756 | 16 | 199 | 0.0 | 1.6 | 0.00 | 0.00 | 0.00 | 86 | 1016.0 |
| 20260904043740 | 16 | 197 | 0.0 | 1.6 | 0.00 | 0.00 | 0.00 | 86 | 1016.0 |
| 20260904043725 | 16 | 281 | 0.0 | 3.2 | 0.00 | 0.00 | 0.00 | 86 | 1015.8 |
| 20260904043708 | 16 | 205 | 0.0 | 3.2 | 0.00 | 0.00 | 0.00 | 86 | 1016.0 |
| 20260904043652 | 16 | 195 | 1.6 | 3.2 | 0.00 | 0.00 | 0.00 | 86 | 1015.9 |
| 20260904043425 | 16 | 204 | 0.0 | 3.2 | 0.00 | 0.00 | 0.00 | 86 | 1015.8 |
| 20260904043149 | 16 | 200 | 0.0 | 3.2 | 0.00 | 0.00 | 0.00 | 86 | 1015.5 |
| 20260904043133 | 16 | 195 | 0.0 | 3.2 | 0.00 | 0.00 | 0.00 | 86 | 1015.7 |
| 20260904043118 | 16 | 197 | 0.0 | 3.2 | 0.00 | 0.00 | 0.00 | 86 | 1015.5 |
| 20260904042849 | 16 | 204 | 0.0 | 3.2 | 0.00 | 0.00 | 0.00 | 86 | 1015.8 |
| 20260904042614 | 16 | 186 | 0.0 | 3.2 | 0.00 | 0.00 | 0.00 | 86 | 1015.7 |
| 20260904042254 | 16 | 205 | 1.6 | 3.2 | 0.00 | 0.00 | 0.00 | 86 | 1015.7 |
| 20260904042227 | 16 | 204 | 0.0 | 3.2 | 0.00 | 0.00 | 0.00 | 86 | 1015.7 |
| 20260904042153 | 16 | 205 | 0.0 | 3.2 | 0.00 | 0.00 | 0.00 | 86 | 1015.7 |
| 20260904042054 | 16 | 204 | 0.0 | 3.2 | 0.00 | 0.00 | 0.00 | 86 | 1015.7 |
| 20260904042027 | 16 | 206 | 0.0 | 3.2 | 0.00 | 0.00 | 0.00 | 86 | 1015.5 |
| 20260904042019 | 16 | 207 | 0.0 | 3.2 | 0.00 | 0.00 | 0.00 | 86 | 1015.6 |
| 20260904042003 | 16 | 212 | 0.0 | 3.2 | 0.00 | 0.00 | 0.00 | 86 | 1015.7 |
| 20260904041948 | 16 | 203 | 0.0 | 3.2 | 0.00 | 0.00 | 0.00 | 86 | 1015.5 |
| 20260904041654 | 16 | 207 | 0.0 | 3.2 | 0.00 | 0.00 | 0.00 | 86 | 1015.6 |
| 20260904041554 | 16 | 206 | 0.0 | 3.2 | 0.00 | 0.00 | 0.00 | 86 | 1015.6 |
| 20260904041454 | 16 | 199 | 0.0 | 3.2 | 0.00 | 0.00 | 0.00 | 86 | 1015.7 |
| 20260904041354 | 16 | 207 | 0.0 | 3.2 | 0.00 | 0.00 | 0.00 | 86 | 1015.8 |
| 20260904041338 | 16 | 199 | 0.0 | 3.2 | 0.00 | 0.00 | 0.00 | 86 | 1015.6 |
| 20260904041324 | 16 | 210 | 0.0 | 3.2 | 0.00 | 0.00 | 0.00 | 86 | 1015.6 |
| 20260904041315 | 16 | 196 | 0.0 | 3.2 | 0.00 | 0.00 | 0.00 | 86 | 1015.5 |
| 20260904041030 | 16 | 206 | 0.0 | 4.8 | 0.00 | 0.00 | 0.00 | 86 | 1015.6 |
| 20260904041014 | 16 | 196 | 0.0 | 4.8 | 0.00 | 0.00 | 0.00 | 86 | 1015.5 |
| 20260904040726 | 16 | 209 | 1.6 | 4.8 | 0.00 | 0.00 | 0.00 | 86 | 1015.7 |
| 20260904040654 | 16 | 196 | 0.0 | 4.8 | 0.00 | 0.00 | 0.00 | 86 | 1015.5 |
| 20260904040554 | 16 | 206 | 0.0 | 4.8 | 0.00 | 0.00 | 0.00 | 86 | 1015.5 |
| 20260904040530 | 16 | 203 | 0.0 | 4.8 | 0.00 | 0.00 | 0.00 | 86 | 1015.5 |
| 20260904040513 | 16 | 205 | 0.0 | 4.8 | 0.00 | 0.00 | 0.00 | 86 | 1015.4 |
| 20260904040227 | 16 | 204 | 0.0 | 4.8 | 0.00 | 0.00 | 0.00 | 86 | 1015.6 |
| 20260904040153 | 16 | 231 | 0.0 | 1.6 | 0.00 | 0.00 | 0.00 | 86 | 1015.6 |
| 20260904040055 | 16 | 205 | 0.0 | 1.6 | 0.00 | 0.00 | 0.00 | 86 | 1015.6 |
| 20260904035953 | 16 | 200 | 0.0 | 1.6 | 0.00 | 0.00 | 0.00 | 86 | 1015.5 |
| 20260904035855 | 16 | 201 | 0.0 | 3.2 | 0.00 | 0.00 | 0.00 | 86 | 1015.6 |
| 20260904035727 | 16 | 209 | 0.0 | 3.2 | 0.00 | 0.00 | 0.00 | 86 | 1015.8 |
| 20260904035656 | 16 | 207 | 0.0 | 3.2 | 0.00 | 0.00 | 0.00 | 86 | 1015.8 |
| 20260904035616 | 16 | 208 | 0.0 | 3.2 | 0.00 | 0.00 | 0.00 | 85 | 1015.8 |
| 20260904035607 | 16 | 209 | 0.0 | 3.2 | 0.00 | 0.00 | 0.00 | 86 | 1015.6 |
| 20260904035552 | 16 | 206 | 0.0 | 3.2 | 0.00 | 0.00 | 0.00 | 86 | 1015.7 |
| 20260904035536 | 16 | 201 | 0.0 | 3.2 | 0.00 | 0.00 | 0.00 | 85 | 1015.6 |
| 20260904035257 | 16 | 231 | 0.0 | 3.2 | 0.00 | 0.00 | 0.00 | 85 | 1015.8 |
| 20260904035248 | 16 | 205 | 0.0 | 3.2 | 0.00 | 0.00 | 0.00 | 85 | 1016.0 |
| 20260904035221 | 16 | 205 | 0.0 | 3.2 | 0.00 | 0.00 | 0.00 | 85 | 1015.8 |
| 20260904034946 | 16 | 205 | 0.0 | 3.2 | 0.00 | 0.00 | 0.00 | 85 | 1015.8 |
| 20260904034654 | 16 | 207 | 0.0 | 3.2 | 0.00 | 0.00 | 0.00 | 85 | 1015.8 |
| 20260904034553 | 16 | 202 | 0.0 | 1.6 | 0.00 | 0.00 | 0.00 | 85 | 1015.8 |
| 20260904034454 | 16 | 207 | 0.0 | 1.6 | 0.00 | 0.00 | 0.00 | 85 | 1015.7 |
| 20260904034354 | 16 | 197 | 0.0 | 1.6 | 0.00 | 0.00 | 0.00 | 85 | 1016.0 |
| 20260904034326 | 16 | 207 | 0.0 | 3.2 | 0.00 | 0.00 | 0.00 | 85 | 1015.7 |
| 20260904034318 | 16 | 211 | 0.0 | 1.6 | 0.00 | 0.00 | 0.00 | 85 | 1015.6 |
| 20260904034305 | 16 | 200 | 0.0 | 1.6 | 0.00 | 0.00 | 0.00 | 85 | 1015.6 |
| 20260904034256 | 16 | 204 | 0.0 | 1.6 | 0.00 | 0.00 | 0.00 | 85 | 1015.9 |
| 20260904034240 | 16 | 203 | 0.0 | 1.6 | 0.00 | 0.00 | 0.00 | 85 | 1015.9 |
| 20260904034225 | 16 | 206 | 0.0 | 1.6 | 0.00 | 0.00 | 0.00 | 85 | 1015.9 |
| 20260904034211 | 16 | 195 | 0.0 | 1.6 | 0.00 | 0.00 | 0.00 | 85 | 1016.1 |
| 20260904033935 | 16 | 207 | 0.0 | 6.4 | 0.00 | 0.00 | 0.00 | 85 | 1016.1 |
| 20260904033926 | 16 | 206 | 0.0 | 9.7 | 0.00 | 0.00 | 0.00 | 85 | 1015.9 |
| 20260904033651 | 16 | 206 | 0.0 | 9.7 | 0.00 | 0.00 | 0.00 | 85 | 1016.1 |
| 20260904033635 | 16 | 205 | 0.0 | 9.7 | 0.00 | 0.00 | 0.00 | 85 | 1015.7 |
| 20260904033620 | 16 | 200 | 0.0 | 9.7 | 0.00 | 0.00 | 0.00 | 85 | 1015.7 |
| 20260904033606 | 16 | 202 | 0.0 | 9.7 | 0.00 | 0.00 | 0.00 | 85 | 1015.7 |
| 20260904033557 | 16 | 210 | 0.0 | 9.7 | 0.00 | 0.00 | 0.00 | 85 | 1015.7 |
| 20260904033541 | 16 | 208 | 0.0 | 9.7 | 0.00 | 0.00 | 0.00 | 85 | 1015.7 |
| 20260904033525 | 16 | 202 | 0.0 | 9.7 | 0.00 | 0.00 | 0.00 | 85 | 1015.8 |
| 20260904033248 | 16 | 215 | 4.8 | 9.7 | 0.00 | 0.00 | 0.00 | 85 | 1015.7 |
| 20260904032454 | 16 | 205 | 0.0 | 1.6 | 0.00 | 0.00 | 0.00 | 85 | 1016.0 |
| 20260904032432 | 16 | 205 | 0.0 | 1.6 | 0.00 | 0.00 | 0.00 | 85 | 1015.8 |
| 20260904032416 | 16 | 200 | 0.0 | 1.6 | 0.00 | 0.00 | 0.00 | 85 | 1015.9 |
| 20260904032403 | 16 | 196 | 0.0 | 1.6 | 0.00 | 0.00 | 0.00 | 85 | 1015.9 |
| 20260904032355 | 16 | 203 | 0.0 | 1.6 | 0.00 | 0.00 | 0.00 | 85 | 1015.8 |
| 20260904032114 | 16 | 200 | 0.0 | 1.6 | 0.00 | 0.00 | 0.00 | 85 | 1016.0 |
| 20260904031754 | 16 | 204 | 0.0 | 1.6 | 0.00 | 0.00 | 0.00 | 85 | 1015.9 |
| 20260904031739 | 16 | 203 | 0.0 | 1.6 | 0.00 | 0.00 | 0.00 | 85 | 1015.9 |
| 20260904031730 | 16 | 206 | 0.0 | 1.6 | 0.00 | 0.00 | 0.00 | 85 | 1015.7 |
| 20260904031714 | 16 | 201 | 0.0 | 1.6 | 0.00 | 0.00 | 0.00 | 85 | 1015.9 |
| 20260904031425 | 16 | 205 | 0.0 | 1.6 | 0.00 | 0.00 | 0.00 | 85 | 1015.6 |
| 20260904031357 | 16 | 206 | 0.0 | 1.6 | 0.00 | 0.00 | 0.00 | 85 | 1015.6 |
| 20260904031348 | 16 | 204 | 0.0 | 1.6 | 0.00 | 0.00 | 0.00 | 85 | 1015.7 |
| 20260904031114 | 17 | 207 | 0.0 | 1.6 | 0.00 | 0.00 | 0.00 | 85 | 1015.7 |
| 20260904030726 | 17 | 202 | 0.0 | 0.0 | 0.00 | 0.00 | 0.00 | 85 | 1015.8 |
| 20260904030654 | 17 | 202 | 0.0 | 0.0 | 0.00 | 0.00 | 0.00 | 85 | 1015.8 |
| 20260904030553 | 17 | 202 | 0.0 | 0.0 | 0.00 | 0.00 | 0.00 | 85 | 1015.6 |
| 20260904030452 | 17 | 202 | 0.0 | 0.0 | 0.00 | 0.00 | 0.00 | 84 | 1015.8 |
| 20260904030353 | 17 | 202 | 0.0 | 0.0 | 0.00 | 0.00 | 0.00 | 84 | 1015.8 |
| 20260904030304 | 17 | 202 | 0.0 | 0.0 | 0.00 | 0.00 | 0.00 | 84 | 1016.0 |
| 20260904030255 | 17 | 202 | 0.0 | 0.0 | 0.00 | 0.00 | 0.00 | 84 | 1016.0 |
| 20260904030229 | 17 | 202 | 0.0 | 0.0 | 0.00 | 0.00 | 0.00 | 84 | 1015.8 |
| 20260904030213 | 17 | 202 | 0.0 | 0.0 | 0.00 | 0.00 | 0.00 | 84 | 1015.9 |
| 20260904025938 | 17 | 202 | 0.0 | 0.0 | 0.00 | 0.00 | 0.00 | 84 | 1015.8 |
| 20260904025709 | 17 | 203 | 0.0 | 0.0 | 0.00 | 0.00 | 0.00 | 84 | 1015.8 |
| 20260904025348 | 17 | 203 | 0.0 | 0.0 | 0.00 | 0.00 | 0.00 | 84 | 1015.8 |
| 20260904025221 | 17 | 202 | 0.0 | 0.0 | 0.00 | 0.00 | 0.00 | 84 | 1015.9 |
| 20260904025150 | 17 | 202 | 0.0 | 0.0 | 0.00 | 0.00 | 0.00 | 84 | 1015.8 |
| 20260904025049 | 17 | 202 | 0.0 | 0.0 | 0.00 | 0.00 | 0.00 | 84 | 1015.8 |
| 20260904024950 | 17 | 203 | 0.0 | 0.0 | 0.00 | 0.00 | 0.00 | 84 | 1015.8 |
| 20260904024935 | 17 | 203 | 0.0 | 0.0 | 0.00 | 0.00 | 0.00 | 84 | 1015.8 |
| 20260904024903 | 17 | 202 | 0.0 | 0.0 | 0.00 | 0.00 | 0.00 | 84 | 1015.8 |
| 20260904024549 | 17 | 203 | 0.0 | 0.0 | 0.00 | 0.00 | 0.00 | 83 | 1015.8 |
| 20260904024501 | 17 | 203 | 0.0 | 0.0 | 0.00 | 0.00 | 0.00 | 83 | 1015.8 |
| 20260904024446 | 17 | 203 | 0.0 | 0.0 | 0.00 | 0.00 | 0.00 | 83 | 1015.7 |
| 20260904024416 | 17 | 203 | 0.0 | 0.0 | 0.00 | 0.00 | 0.00 | 83 | 1015.9 |
| 20260904024049 | 17 | 202 | 0.0 | 0.0 | 0.00 | 0.00 | 0.00 | 83 | 1015.9 |
| 20260904023950 | 17 | 203 | 0.0 | 0.0 | 0.00 | 0.00 | 0.00 | 83 | 1016.0 |
| 20260904023850 | 17 | 203 | 0.0 | 0.0 | 0.00 | 0.00 | 0.00 | 83 | 1015.9 |
| 20260904023721 | 17 | 203 | 0.0 | 0.0 | 0.00 | 0.00 | 0.00 | 83 | 1015.9 |
| 20260904023650 | 17 | 203 | 0.0 | 0.0 | 0.00 | 0.00 | 0.00 | 83 | 1015.9 |
| 20260904023609 | 17 | 201 | 0.0 | 0.0 | 0.00 | 0.00 | 0.00 | 83 | 1015.8 |
| 20260904023602 | 17 | 203 | 0.0 | 0.0 | 0.00 | 0.00 | 0.00 | 83 | 1015.9 |
| 20260904023546 | 17 | 203 | 0.0 | 0.0 | 0.00 | 0.00 | 0.00 | 83 | 1015.9 |
| 20260904023531 | 17 | 201 | 0.0 | 0.0 | 0.00 | 0.00 | 0.00 | 83 | 1015.9 |
| 20260904023502 | 17 | 201 | 0.0 | 0.0 | 0.00 | 0.00 | 0.00 | 83 | 1015.9 |
| 20260904023453 | 17 | 201 | 0.0 | 0.0 | 0.00 | 0.00 | 0.00 | 83 | 1015.9 |
| 20260904023436 | 17 | 201 | 0.0 | 0.0 | 0.00 | 0.00 | 0.00 | 83 | 1015.8 |
| 20260904023421 | 17 | 201 | 0.0 | 0.0 | 0.00 | 0.00 | 0.00 | 83 | 1015.8 |
| 20260904022649 | 17 | 202 | 0.0 | 0.0 | 0.00 | 0.00 | 0.00 | 83 | 1016.0 |
| 20260904022549 | 17 | 202 | 0.0 | 0.0 | 0.00 | 0.00 | 0.00 | 83 | 1016.1 |
| 20260904022448 | 17 | 204 | 0.0 | 0.0 | 0.00 | 0.00 | 0.00 | 83 | 1015.9 |
| 20260904022349 | 17 | 200 | 0.0 | 0.0 | 0.00 | 0.00 | 0.00 | 83 | 1015.7 |
| 20260904022221 | 17 | 201 | 0.0 | 0.0 | 0.00 | 0.00 | 0.00 | 83 | 1015.8 |
| 20260904022136 | 17 | 203 | 0.0 | 0.0 | 0.00 | 0.00 | 0.00 | 83 | 1015.7 |
| 20260904022117 | 17 | 197 | 0.0 | 1.6 | 0.00 | 0.00 | 0.00 | 82 | 1015.9 |
| 20260904022109 | 17 | 204 | 0.0 | 0.0 | 0.00 | 0.00 | 0.00 | 83 | 1016.0 |
| 20260904022053 | 17 | 200 | 0.0 | 0.0 | 0.00 | 0.00 | 0.00 | 82 | 1015.8 |
| 20260904022039 | 17 | 200 | 0.0 | 1.6 | 0.00 | 0.00 | 0.00 | 82 | 1016.1 |
| 20260904022023 | 17 | 197 | 0.0 | 1.6 | 0.00 | 0.00 | 0.00 | 82 | 1015.9 |
| 20260904021757 | 17 | 198 | 0.0 | 1.6 | 0.00 | 0.00 | 0.00 | 82 | 1015.7 |
| 20260904021513 | 17 | 194 | 0.0 | 1.6 | 0.00 | 0.00 | 0.00 | 82 | 1015.9 |
| 20260904021457 | 17 | 200 | 0.0 | 1.6 | 0.00 | 0.00 | 0.00 | 82 | 1015.8 |
| 20260904021430 | 17 | 200 | 0.0 | 1.6 | 0.00 | 0.00 | 0.00 | 82 | 1015.8 |
| 20260904021159 | 17 | 201 | 0.0 | 1.6 | 0.00 | 0.00 | 0.00 | 82 | 1015.9 |
| 20260904020838 | 17 | 199 | 0.0 | 1.6 | 0.00 | 0.00 | 0.00 | 82 | 1016.1 |
| 20260904020722 | 17 | 200 | 0.0 | 1.6 | 0.00 | 0.00 | 0.00 | 82 | 1016.0 |
| 20260904020651 | 17 | 191 | 0.0 | 1.6 | 0.00 | 0.00 | 0.00 | 82 | 1015.9 |
| 20260904020636 | 17 | 203 | 0.0 | 0.0 | 0.00 | 0.00 | 0.00 | 82 | 1015.6 |
| 20260904020622 | 17 | 203 | 0.0 | 0.0 | 0.00 | 0.00 | 0.00 | 82 | 1016.0 |
| 20260904020605 | 17 | 203 | 0.0 | 0.0 | 0.00 | 0.00 | 0.00 | 82 | 1015.8 |
| 20260904020543 | 17 | 200 | 0.0 | 0.0 | 0.00 | 0.00 | 0.00 | 82 | 1015.9 |
| 20260904020527 | 17 | 201 | 0.0 | 0.0 | 0.00 | 0.00 | 0.00 | 82 | 1016.0 |
| 20260904020033 | 17 | 203 | 0.0 | 0.0 | 0.00 | 0.00 | 0.00 | 82 | 1016.1 |
| 20260904020009 | 17 | 203 | 0.0 | 0.0 | 0.00 | 0.00 | 0.00 | 82 | 1015.7 |
| 20260904015940 | 17 | 204 | 0.0 | 0.0 | 0.00 | 0.00 | 0.00 | 82 | 1015.9 |
| 20260904015925 | 17 | 205 | 0.0 | 0.0 | 0.00 | 0.00 | 0.00 | 82 | 1015.8 |
| 20260904015909 | 17 | 205 | 0.0 | 0.0 | 0.00 | 0.00 | 0.00 | 82 | 1015.7 |
| 20260904015854 | 17 | 203 | 0.0 | 0.0 | 0.00 | 0.00 | 0.00 | 82 | 1015.8 |
| 20260904015627 | 17 | 200 | 0.0 | 0.0 | 0.00 | 0.00 | 0.00 | 82 | 1015.9 |
| 20260904015611 | 17 | 199 | 0.0 | 0.0 | 0.00 | 0.00 | 0.00 | 82 | 1016.0 |
| 20260904014846 | 17 | 198 | 0.0 | 0.0 | 0.00 | 0.00 | 0.00 | 82 | 1015.7 |
| 20260904014525 | 17 | 199 | 0.0 | 0.0 | 0.00 | 0.00 | 0.00 | 82 | 1015.8 |
| 20260904014425 | 17 | 195 | 0.0 | 0.0 | 0.00 | 0.00 | 0.00 | 81 | 1015.7 |
| 20260904014407 | 17 | 200 | 0.0 | 0.0 | 0.00 | 0.00 | 0.00 | 82 | 1015.8 |
| 20260904014346 | 17 | 200 | 0.0 | 0.0 | 0.00 | 0.00 | 0.00 | 82 | 1015.8 |
| 20260904014026 | 17 | 199 | 0.0 | 0.0 | 0.00 | 0.00 | 0.00 | 82 | 1015.9 |
| 20260904013926 | 17 | 199 | 0.0 | 0.0 | 0.00 | 0.00 | 0.00 | 82 | 1016.0 |
| 20260904013909 | 17 | 199 | 0.0 | 0.0 | 0.00 | 0.00 | 0.00 | 82 | 1015.8 |
| 20260904013843 | 17 | 199 | 0.0 | 0.0 | 0.00 | 0.00 | 0.00 | 82 | 1016.0 |
| 20260904013525 | 17 | 193 | 0.0 | 0.0 | 0.00 | 0.00 | 0.00 | 82 | 1015.9 |
| 20260904013430 | 17 | 203 | 0.0 | 0.0 | 0.00 | 0.00 | 0.00 | 82 | 1016.0 |
| 20260904013325 | 17 | 203 | 0.0 | 0.0 | 0.00 | 0.00 | 0.00 | 82 | 1015.8 |
| 20260904013209 | 17 | 203 | 0.0 | 3.2 | 0.00 | 0.00 | 0.00 | 82 | 1016.0 |
| 20260904013126 | 17 | 203 | 0.0 | 3.2 | 0.00 | 0.00 | 0.00 | 82 | 1015.7 |
| 20260904013025 | 17 | 203 | 0.0 | 3.2 | 0.00 | 0.00 | 0.00 | 82 | 1016.1 |
| 20260904012924 | 17 | 203 | 0.0 | 3.2 | 0.00 | 0.00 | 0.00 | 82 | 1015.8 |
| 20260904012826 | 17 | 203 | 0.0 | 3.2 | 0.00 | 0.00 | 0.00 | 82 | 1016.0 |
| 20260904012710 | 17 | 203 | 0.0 | 3.2 | 0.00 | 0.00 | 0.00 | 82 | 1015.7 |
| 20260904012625 | 17 | 203 | 0.0 | 3.2 | 0.00 | 0.00 | 0.00 | 82 | 1015.9 |
| 20260904012525 | 17 | 204 | 0.0 | 3.2 | 0.00 | 0.00 | 0.00 | 82 | 1015.8 |
| 20260904012425 | 17 | 205 | 0.0 | 3.2 | 0.00 | 0.00 | 0.00 | 82 | 1016.0 |
| 20260904012325 | 17 | 205 | 0.0 | 3.2 | 0.00 | 0.00 | 0.00 | 82 | 1015.8 |
| 20260904012210 | 17 | 201 | 0.0 | 0.0 | 0.00 | 0.00 | 0.00 | 82 | 1016.0 |
| 20260904012125 | 17 | 201 | 0.0 | 0.0 | 0.00 | 0.00 | 0.00 | 82 | 1015.9 |
| 20260904012101 | 17 | 201 | 0.0 | 0.0 | 0.00 | 0.00 | 0.00 | 82 | 1016.0 |
| 20260904012046 | 17 | 202 | 0.0 | 0.0 | 0.00 | 0.00 | 0.00 | 82 | 1016.1 |
| 20260904011709 | 17 | 204 | 0.0 | 0.0 | 0.00 | 0.00 | 0.00 | 82 | 1016.2 |
| 20260904011628 | 17 | 204 | 0.0 | 0.0 | 0.00 | 0.00 | 0.00 | 82 | 1015.9 |
| 20260904011613 | 17 | 204 | 0.0 | 0.0 | 0.00 | 0.00 | 0.00 | 82 | 1015.8 |
| 20260904011557 | 17 | 204 | 0.0 | 0.0 | 0.00 | 0.00 | 0.00 | 82 | 1016.2 |
| 20260904011310 | 17 | 203 | 0.0 | 0.0 | 0.00 | 0.00 | 0.00 | 82 | 1015.9 |
| 20260904011246 | 17 | 203 | 0.0 | 0.0 | 0.00 | 0.00 | 0.00 | 82 | 1015.9 |
| 20260904010925 | 17 | 203 | 0.0 | 0.0 | 0.00 | 0.00 | 0.00 | 82 | 1016.0 |
| 20260904010843 | 17 | 203 | 0.0 | 0.0 | 0.00 | 0.00 | 0.00 | 82 | 1016.0 |
| 20260904010814 | 17 | 203 | 0.0 | 0.0 | 0.00 | 0.00 | 0.00 | 82 | 1016.0 |
| 20260904010803 | 17 | 203 | 0.0 | 0.0 | 0.00 | 0.00 | 0.00 | 82 | 1015.9 |
| 20260904010747 | 17 | 203 | 0.0 | 0.0 | 0.00 | 0.00 | 0.00 | 82 | 1015.9 |
| 20260904010732 | 17 | 203 | 0.0 | 0.0 | 0.00 | 0.00 | 0.00 | 82 | 1015.9 |
| 20260904010716 | 17 | 203 | 0.0 | 0.0 | 0.00 | 0.00 | 0.00 | 82 | 1015.8 |
| 20260904010443 | 17 | 203 | 0.0 | 0.0 | 0.00 | 0.00 | 0.00 | 82 | 1016.0 |
| 20260904010434 | 17 | 203 | 0.0 | 0.0 | 0.00 | 0.00 | 0.00 | 82 | 1016.0 |
| 20260904010201 | 17 | 203 | 0.0 | 0.0 | 0.00 | 0.00 | 0.00 | 82 | 1016.0 |
| 20260904005713 | 17 | 203 | 0.0 | 0.0 | 0.00 | 0.00 | 0.00 | 82 | 1016.0 |
| 20260904005612 | 17 | 203 | 0.0 | 0.0 | 0.00 | 0.00 | 0.00 | 82 | 1016.1 |
| 20260904005513 | 17 | 203 | 0.0 | 0.0 | 0.00 | 0.00 | 0.00 | 82 | 1015.9 |
| 20260904005413 | 17 | 203 | 0.0 | 0.0 | 0.00 | 0.00 | 0.00 | 82 | 1016.1 |
| 20260904005314 | 17 | 203 | 0.0 | 0.0 | 0.00 | 0.00 | 0.00 | 82 | 1016.0 |
| 20260904005248 | 17 | 203 | 0.0 | 0.0 | 0.00 | 0.00 | 0.00 | 82 | 1015.7 |
| 20260904005231 | 17 | 203 | 0.0 | 0.0 | 0.00 | 0.00 | 0.00 | 82 | 1016.2 |
| 20260904005214 | 17 | 203 | 0.0 | 0.0 | 0.00 | 0.00 | 0.00 | 82 | 1015.8 |
| 20260904004939 | 17 | 203 | 0.0 | 0.0 | 0.00 | 0.00 | 0.00 | 82 | 1015.7 |
| 20260904004712 | 17 | 203 | 0.0 | 0.0 | 0.00 | 0.00 | 0.00 | 82 | 1015.8 |
| 20260904004355 | 17 | 203 | 0.0 | 0.0 | 0.00 | 0.00 | 0.00 | 82 | 1016.1 |
| 20260904004238 | 17 | 203 | 0.0 | 0.0 | 0.00 | 0.00 | 0.00 | 82 | 1016.1 |
| 20260904004154 | 17 | 203 | 0.0 | 0.0 | 0.00 | 0.00 | 0.00 | 82 | 1016.1 |
| 20260904004054 | 17 | 203 | 0.0 | 0.0 | 0.00 | 0.00 | 0.00 | 82 | 1016.0 |
| 20260904003954 | 17 | 203 | 0.0 | 0.0 | 0.00 | 0.00 | 0.00 | 82 | 1015.8 |
| 20260904003855 | 17 | 203 | 0.0 | 0.0 | 0.00 | 0.00 | 0.00 | 82 | 1016.0 |
| 20260904003738 | 17 | 203 | 0.0 | 0.0 | 0.00 | 0.00 | 0.00 | 82 | 1016.1 |
| 20260904003655 | 17 | 203 | 0.0 | 0.0 | 0.00 | 0.00 | 0.00 | 82 | 1016.1 |
| 20260904003555 | 17 | 203 | 0.0 | 0.0 | 0.00 | 0.00 | 0.00 | 82 | 1016.1 |
| 20260904003455 | 17 | 203 | 0.0 | 0.0 | 0.00 | 0.00 | 0.00 | 82 | 1016.0 |
| 20260904003354 | 17 | 203 | 0.0 | 0.0 | 0.00 | 0.00 | 0.00 | 82 | 1016.0 |
| 20260904003238 | 17 | 203 | 0.0 | 0.0 | 0.00 | 0.00 | 0.00 | 82 | 1016.2 |
| 20260904003155 | 17 | 203 | 0.0 | 0.0 | 0.00 | 0.00 | 0.00 | 82 | 1016.1 |
| 20260904003053 | 17 | 203 | 0.0 | 0.0 | 0.00 | 0.00 | 0.00 | 82 | 1016.0 |
| 20260904002955 | 17 | 203 | 0.0 | 0.0 | 0.00 | 0.00 | 0.00 | 82 | 1016.3 |
| 20260904002856 | 17 | 202 | 0.0 | 0.0 | 0.00 | 0.00 | 0.00 | 82 | 1016.1 |
| 20260904002738 | 17 | 203 | 0.0 | 0.0 | 0.00 | 0.00 | 0.00 | 82 | 1016.2 |
| 20260904002654 | 17 | 203 | 0.0 | 0.0 | 0.00 | 0.00 | 0.00 | 82 | 1016.0 |
| 20260904002630 | 17 | 203 | 0.0 | 0.0 | 0.00 | 0.00 | 0.00 | 82 | 1016.1 |
| 20260904002614 | 17 | 203 | 0.0 | 0.0 | 0.00 | 0.00 | 0.00 | 82 | 1015.9 |
| 20260904002239 | 17 | 203 | 0.0 | 0.0 | 0.00 | 0.00 | 0.00 | 82 | 1015.9 |
| 20260904002155 | 17 | 203 | 0.0 | 0.0 | 0.00 | 0.00 | 0.00 | 82 | 1016.2 |
| 20260904002054 | 17 | 203 | 0.0 | 0.0 | 0.00 | 0.00 | 0.00 | 82 | 1016.1 |
| 20260904002040 | 17 | 203 | 0.0 | 0.0 | 0.00 | 0.00 | 0.00 | 82 | 1016.1 |
| 20260904002030 | 17 | 203 | 0.0 | 0.0 | 0.00 | 0.00 | 0.00 | 82 | 1015.8 |
| 20260904002014 | 17 | 203 | 0.0 | 0.0 | 0.00 | 0.00 | 0.00 | 82 | 1016.3 |
| 20260904001958 | 17 | 203 | 0.0 | 0.0 | 0.00 | 0.00 | 0.00 | 82 | 1016.1 |
| 20260904001655 | 17 | 203 | 0.0 | 0.0 | 0.00 | 0.00 | 0.00 | 82 | 1016.2 |
| 20260904001555 | 17 | 203 | 0.0 | 0.0 | 0.00 | 0.00 | 0.00 | 82 | 1016.2 |
| 20260904001455 | 17 | 203 | 0.0 | 0.0 | 0.00 | 0.00 | 0.00 | 82 | 1016.1 |
| 20260904001354 | 17 | 203 | 0.0 | 0.0 | 0.00 | 0.00 | 0.00 | 82 | 1016.2 |
| 20260904001238 | 17 | 203 | 0.0 | 0.0 | 0.00 | 0.00 | 0.00 | 82 | 1016.3 |
| 20260904001154 | 17 | 203 | 0.0 | 0.0 | 0.00 | 0.00 | 0.00 | 82 | 1016.1 |
| 20260904001054 | 17 | 203 | 0.0 | 0.0 | 0.00 | 0.00 | 0.00 | 82 | 1016.1 |
| 20260904000953 | 17 | 203 | 0.0 | 0.0 | 0.00 | 0.00 | 0.00 | 82 | 1016.2 |
| 20260904000854 | 17 | 203 | 0.0 | 0.0 | 0.00 | 0.00 | 0.00 | 82 | 1016.3 |
| 20260904000739 | 17 | 203 | 0.0 | 0.0 | 0.00 | 0.00 | 0.00 | 82 | 1016.1 |
| 20260904000655 | 17 | 203 | 0.0 | 0.0 | 0.00 | 0.00 | 0.00 | 82 | 1016.0 |
| 20260904000555 | 17 | 203 | 0.0 | 0.0 | 0.00 | 0.00 | 0.00 | 82 | 1016.2 |
| 20260904000455 | 17 | 203 | 0.0 | 0.0 | 0.00 | 0.00 | 0.00 | 82 | 1016.1 |
| 20260904000355 | 17 | 203 | 0.0 | 0.0 | 0.00 | 0.00 | 0.00 | 82 | 1016.2 |
| 20260904000240 | 17 | 203 | 0.0 | 0.0 | 0.00 | 0.00 | 0.00 | 82 | 1016.0 |
| 20260904000154 | 17 | 203 | 0.0 | 0.0 | 0.00 | 0.00 | 0.00 | 82 | 1015.9 |
| 20260904000054 | 17 | 203 | 0.0 | 0.0 | 0.00 | 0.00 | 0.00 | 82 | 1016.1 |
| 20260903235953 | 17 | 203 | 0.0 | 0.0 | 0.00 | 0.00 | 0.00 | 82 | 1016.0 |
| 20260903235854 | 17 | 203 | 0.0 | 0.0 | 0.00 | 0.00 | 0.00 | 82 | 1016.2 |
| 20260903235758 | 17 | 203 | 0.0 | 0.0 | 0.00 | 0.00 | 0.00 | 82 | 1016.3 |
| 20260903235740 | 17 | 204 | 0.0 | 0.0 | 0.00 | 0.00 | 0.00 | 82 | 1016.2 |
| 20260903235729 | 17 | 204 | 0.0 | 0.0 | 0.00 | 0.00 | 0.00 | 82 | 1016.2 |
| 20260903235713 | 17 | 204 | 0.0 | 0.0 | 0.00 | 0.00 | 0.00 | 82 | 1016.2 |
| 20260903235658 | 17 | 202 | 0.0 | 0.0 | 0.00 | 0.00 | 0.00 | 82 | 1015.9 |
| 20260903235644 | 17 | 203 | 0.0 | 0.0 | 0.00 | 0.00 | 0.00 | 82 | 1016.1 |
| 20260903235628 | 17 | 203 | 0.0 | 0.0 | 0.00 | 0.00 | 0.00 | 82 | 1016.3 |
| 20260903235401 | 17 | 203 | 0.0 | 0.0 | 0.00 | 0.00 | 0.00 | 82 | 1016.1 |
| 20260903235123 | 17 | 203 | 0.0 | 0.0 | 0.00 | 0.00 | 0.00 | 82 | 1016.3 |
| 20260903235106 | 16 | 203 | 0.0 | 0.0 | 0.00 | 0.00 | 0.00 | 82 | 1016.4 |
| 20260903235037 | 16 | 203 | 0.0 | 0.0 | 0.00 | 0.00 | 0.00 | 82 | 1016.3 |
| 20260903234752 | 16 | 203 | 0.0 | 0.0 | 0.00 | 0.00 | 0.00 | 82 | 1016.4 |
| 20260903234516 | 16 | 203 | 0.0 | 1.6 | 0.00 | 0.00 | 0.00 | 82 | 1016.4 |
| 20260903234238 | 16 | 203 | 0.0 | 1.6 | 0.00 | 0.00 | 0.00 | 82 | 1016.4 |
| 20260903234154 | 16 | 203 | 0.0 | 1.6 | 0.00 | 0.00 | 0.00 | 82 | 1016.3 |
| 20260903234055 | 16 | 204 | 0.0 | 1.6 | 0.00 | 0.00 | 0.00 | 82 | 1016.6 |
| 20260903233954 | 16 | 204 | 0.0 | 1.6 | 0.00 | 0.00 | 0.00 | 82 | 1016.2 |
| 20260903233855 | 16 | 205 | 0.0 | 1.6 | 0.00 | 0.00 | 0.00 | 82 | 1016.4 |
| 20260903233753 | 16 | 205 | 0.0 | 1.6 | 0.00 | 0.00 | 0.00 | 82 | 1016.2 |
| 20260903233739 | 16 | 204 | 0.0 | 1.6 | 0.00 | 0.00 | 0.00 | 82 | 1016.2 |
| 20260903233728 | 16 | 205 | 0.0 | 1.6 | 0.00 | 0.00 | 0.00 | 82 | 1016.3 |
| 20260903233712 | 16 | 205 | 0.0 | 1.6 | 0.00 | 0.00 | 0.00 | 82 | 1016.1 |
| 20260903233656 | 16 | 206 | 0.0 | 1.6 | 0.00 | 0.00 | 0.00 | 82 | 1016.4 |
| 20260903233641 | 16 | 200 | 0.0 | 0.0 | 0.00 | 0.00 | 0.00 | 82 | 1016.3 |
| 20260903233409 | 16 | 205 | 0.0 | 0.0 | 0.00 | 0.00 | 0.00 | 82 | 1016.1 |
| 20260903233055 | 16 | 200 | 0.0 | 0.0 | 0.00 | 0.00 | 0.00 | 82 | 1016.3 |
| 20260903233018 | 16 | 199 | 0.0 | 0.0 | 0.00 | 0.00 | 0.00 | 82 | 1016.2 |
| 20260903233003 | 16 | 199 | 0.0 | 0.0 | 0.00 | 0.00 | 0.00 | 82 | 1016.2 |
| 20260903232933 | 16 | 199 | 0.0 | 0.0 | 0.00 | 0.00 | 0.00 | 82 | 1016.2 |
| 20260903232923 | 16 | 199 | 0.0 | 0.0 | 0.00 | 0.00 | 0.00 | 82 | 1016.4 |
| 20260903232648 | 16 | 197 | 0.0 | 0.0 | 0.00 | 0.00 | 0.00 | 82 | 1016.4 |
| 20260903232632 | 16 | 197 | 0.0 | 0.0 | 0.00 | 0.00 | 0.00 | 82 | 1016.3 |
| 20260903232603 | 16 | 197 | 0.0 | 0.0 | 0.00 | 0.00 | 0.00 | 82 | 1016.5 |
| 20260903232333 | 16 | 196 | 0.0 | 0.0 | 0.00 | 0.00 | 0.00 | 82 | 1016.4 |
| 20260903232319 | 16 | 196 | 0.0 | 0.0 | 0.00 | 0.00 | 0.00 | 82 | 1016.3 |
| 20260903231824 | 16 | 196 | 0.0 | 0.0 | 0.00 | 0.00 | 0.00 | 82 | 1016.4 |
| 20260903231814 | 16 | 196 | 0.0 | 0.0 | 0.00 | 0.00 | 0.00 | 82 | 1016.2 |
| 20260903231758 | 16 | 195 | 0.0 | 0.0 | 0.00 | 0.00 | 0.00 | 82 | 1016.5 |
| 20260903231742 | 16 | 195 | 0.0 | 0.0 | 0.00 | 0.00 | 0.00 | 82 | 1016.5 |
| 20260903231251 | 16 | 195 | 0.0 | 0.0 | 0.00 | 0.00 | 0.00 | 82 | 1016.4 |
| 20260903231154 | 16 | 195 | 0.0 | 0.0 | 0.00 | 0.00 | 0.00 | 82 | 1016.5 |
| 20260903231056 | 16 | 196 | 0.0 | 0.0 | 0.00 | 0.00 | 0.00 | 82 | 1016.4 |
| 20260903230954 | 16 | 195 | 0.0 | 0.0 | 0.00 | 0.00 | 0.00 | 82 | 1016.5 |
| 20260903230854 | 16 | 196 | 0.0 | 0.0 | 0.00 | 0.00 | 0.00 | 82 | 1016.5 |
| 20260903230819 | 16 | 196 | 0.0 | 0.0 | 0.00 | 0.00 | 0.00 | 82 | 1016.4 |
| 20260903230808 | 16 | 195 | 0.0 | 0.0 | 0.00 | 0.00 | 0.00 | 82 | 1016.7 |
| 20260903230752 | 16 | 196 | 0.0 | 0.0 | 0.00 | 0.00 | 0.00 | 82 | 1016.5 |
| 20260903230514 | 16 | 196 | 0.0 | 0.0 | 0.00 | 0.00 | 0.00 | 82 | 1016.5 |
| 20260903230238 | 16 | 196 | 0.0 | 0.0 | 0.00 | 0.00 | 0.00 | 82 | 1016.3 |
| 20260903230154 | 16 | 196 | 0.0 | 0.0 | 0.00 | 0.00 | 0.00 | 81 | 1016.3 |
| 20260903230130 | 16 | 196 | 0.0 | 0.0 | 0.00 | 0.00 | 0.00 | 81 | 1016.6 |
| 20260903230114 | 17 | 196 | 0.0 | 0.0 | 0.00 | 0.00 | 0.00 | 81 | 1016.5 |
| 20260903225740 | 17 | 198 | 0.0 | 0.0 | 0.00 | 0.00 | 0.00 | 81 | 1016.4 |
| 20260903225729 | 17 | 198 | 0.0 | 0.0 | 0.00 | 0.00 | 0.00 | 81 | 1016.7 |
| 20260903225714 | 17 | 198 | 0.0 | 0.0 | 0.00 | 0.00 | 0.00 | 81 | 1016.4 |
| 20260903225354 | 17 | 198 | 0.0 | 0.0 | 0.00 | 0.00 | 0.00 | 81 | 1016.7 |
| 20260903225239 | 17 | 198 | 0.0 | 0.0 | 0.00 | 0.00 | 0.00 | 81 | 1016.7 |
| 20260903225154 | 17 | 198 | 0.0 | 0.0 | 0.00 | 0.00 | 0.00 | 81 | 1016.6 |
| 20260903225055 | 17 | 198 | 0.0 | 0.0 | 0.00 | 0.00 | 0.00 | 81 | 1016.6 |
| 20260903225031 | 17 | 198 | 0.0 | 0.0 | 0.00 | 0.00 | 0.00 | 81 | 1016.5 |
| 20260903225015 | 17 | 198 | 0.0 | 0.0 | 0.00 | 0.00 | 0.00 | 80 | 1016.6 |
| 20260903224738 | 17 | 198 | 0.0 | 0.0 | 0.00 | 0.00 | 0.00 | 80 | 1016.7 |
| 20260903224656 | 17 | 198 | 0.0 | 1.6 | 0.00 | 0.00 | 0.00 | 80 | 1016.6 |
| 20260903224554 | 17 | 198 | 0.0 | 1.6 | 0.00 | 0.00 | 0.00 | 80 | 1016.5 |
| 20260903224454 | 17 | 198 | 0.0 | 1.6 | 0.00 | 0.00 | 0.00 | 80 | 1016.5 |
| 20260903224354 | 17 | 198 | 0.0 | 1.6 | 0.00 | 0.00 | 0.00 | 80 | 1016.8 |
| 20260903224255 | 17 | 197 | 0.0 | 3.2 | 0.00 | 0.00 | 0.00 | 80 | 1016.8 |
| 20260903224239 | 17 | 196 | 0.0 | 4.8 | 0.00 | 0.00 | 0.00 | 80 | 1016.8 |
| 20260903224155 | 17 | 200 | 0.0 | 4.8 | 0.00 | 0.00 | 0.00 | 80 | 1016.7 |
| 20260903224055 | 17 | 200 | 0.0 | 4.8 | 0.00 | 0.00 | 0.00 | 80 | 1016.7 |
| 20260903223954 | 17 | 201 | 0.0 | 4.8 | 0.00 | 0.00 | 0.00 | 80 | 1016.4 |
| 20260903223938 | 17 | 204 | 0.0 | 4.8 | 0.00 | 0.00 | 0.00 | 80 | 1016.7 |
| 20260903223922 | 17 | 196 | 0.0 | 4.8 | 0.00 | 0.00 | 0.00 | 80 | 1016.7 |
| 20260903223909 | 17 | 198 | 0.0 | 4.8 | 0.00 | 0.00 | 0.00 | 80 | 1016.7 |
| 20260903223631 | 17 | 200 | 0.0 | 6.4 | 0.00 | 0.00 | 0.00 | 80 | 1016.7 |
| 20260903223615 | 17 | 200 | 0.0 | 6.4 | 0.00 | 0.00 | 0.00 | 80 | 1016.5 |
| 20260903223241 | 17 | 198 | 0.0 | 6.4 | 0.00 | 0.00 | 0.00 | 80 | 1016.5 |
| 20260903223230 | 16 | 199 | 0.0 | 6.4 | 0.00 | 0.00 | 0.00 | 80 | 1016.6 |
| 20260903223214 | 16 | 204 | 3.2 | 6.4 | 0.00 | 0.00 | 0.00 | 81 | 1016.4 |
| 20260903222853 | 16 | 199 | 0.0 | 6.4 | 0.00 | 0.00 | 0.00 | 82 | 1016.6 |
| 20260903222754 | 16 | 186 | 1.6 | 6.4 | 0.00 | 0.00 | 0.00 | 82 | 1016.5 |
| 20260903222738 | 16 | 249 | 3.2 | 6.4 | 0.00 | 0.00 | 0.00 | 82 | 1016.5 |
| 20260903222654 | 16 | 196 | 0.0 | 3.2 | 0.00 | 0.00 | 0.00 | 82 | 1016.4 |
| 20260903222554 | 16 | 204 | 0.0 | 3.2 | 0.00 | 0.00 | 0.00 | 83 | 1016.4 |
| 20260903222455 | 16 | 199 | 0.0 | 3.2 | 0.00 | 0.00 | 0.00 | 83 | 1016.6 |
| 20260903222355 | 16 | 198 | 0.0 | 3.2 | 0.00 | 0.00 | 0.00 | 83 | 1016.5 |
| 20260903222238 | 16 | 202 | 0.0 | 3.2 | 0.00 | 0.00 | 0.00 | 83 | 1016.5 |
| 20260903222154 | 16 | 203 | 0.0 | 3.2 | 0.00 | 0.00 | 0.00 | 83 | 1016.7 |
| 20260903222054 | 16 | 211 | 1.6 | 3.2 | 0.00 | 0.00 | 0.00 | 84 | 1016.7 |
| 20260903221954 | 16 | 206 | 0.0 | 0.0 | 0.00 | 0.00 | 0.00 | 84 | 1016.5 |
| 20260903221853 | 16 | 200 | 0.0 | 0.0 | 0.00 | 0.00 | 0.00 | 84 | 1016.6 |
| 20260903221739 | 16 | 200 | 0.0 | 0.0 | 0.00 | 0.00 | 0.00 | 84 | 1016.6 |
| 20260903221655 | 16 | 200 | 0.0 | 0.0 | 0.00 | 0.00 | 0.00 | 85 | 1016.6 |
| 20260903221554 | 16 | 203 | 0.0 | 1.6 | 0.00 | 0.00 | 0.00 | 85 | 1016.7 |
| 20260903221454 | 16 | 203 | 0.0 | 1.6 | 0.00 | 0.00 | 0.00 | 85 | 1016.6 |
| 20260903221354 | 16 | 204 | 0.0 | 1.6 | 0.00 | 0.00 | 0.00 | 86 | 1016.6 |
| 20260903221241 | 16 | 204 | 0.0 | 1.6 | 0.00 | 0.00 | 0.00 | 86 | 1016.7 |
| 20260903221231 | 16 | 205 | 0.0 | 1.6 | 0.00 | 0.00 | 0.00 | 86 | 1016.5 |
| 20260903221214 | 16 | 205 | 0.0 | 1.6 | 0.00 | 0.00 | 0.00 | 86 | 1016.5 |
| 20260903220939 | 16 | 201 | 0.0 | 1.6 | 0.00 | 0.00 | 0.00 | 87 | 1016.5 |
| 20260903220910 | 15 | 201 | 0.0 | 1.6 | 0.00 | 0.00 | 0.00 | 87 | 1016.4 |
| 20260903220555 | 15 | 201 | 0.0 | 0.0 | 0.00 | 0.00 | 0.00 | 87 | 1016.2 |
| 20260903220454 | 15 | 201 | 0.0 | 0.0 | 0.00 | 0.00 | 0.00 | 88 | 1016.5 |
| 20260903220354 | 15 | 201 | 0.0 | 0.0 | 0.00 | 0.00 | 0.00 | 88 | 1016.5 |
| 20260903220252 | 15 | 201 | 0.0 | 0.0 | 0.00 | 0.00 | 0.00 | 88 | 1016.6 |
| 20260903220154 | 15 | 201 | 0.0 | 0.0 | 0.00 | 0.00 | 0.00 | 88 | 1016.7 |
| 20260903220054 | 15 | 201 | 0.0 | 0.0 | 0.00 | 0.00 | 0.00 | 88 | 1016.7 |
| 20260903215954 | 15 | 201 | 0.0 | 0.0 | 0.00 | 0.00 | 0.00 | 88 | 1016.6 |
| 20260903215853 | 15 | 201 | 0.0 | 0.0 | 0.00 | 0.00 | 0.00 | 88 | 1016.7 |
| 20260903215738 | 15 | 201 | 0.0 | 0.0 | 0.00 | 0.00 | 0.00 | 88 | 1016.7 |
| 20260903215654 | 15 | 201 | 0.0 | 0.0 | 0.00 | 0.00 | 0.00 | 89 | 1016.6 |
| 20260903215553 | 15 | 201 | 0.0 | 0.0 | 0.00 | 0.00 | 0.00 | 89 | 1016.4 |
| 20260903215454 | 15 | 201 | 0.0 | 0.0 | 0.00 | 0.00 | 0.00 | 89 | 1016.7 |
| 20260903215437 | 15 | 201 | 0.0 | 0.0 | 0.00 | 0.00 | 0.00 | 89 | 1016.6 |
| 20260903215410 | 15 | 201 | 0.0 | 0.0 | 0.00 | 0.00 | 0.00 | 89 | 1016.4 |
| 20260903215120 | 15 | 201 | 0.0 | 0.0 | 0.00 | 0.00 | 0.00 | 89 | 1016.9 |
| 20260903215105 | 15 | 201 | 0.0 | 0.0 | 0.00 | 0.00 | 0.00 | 89 | 1016.6 |
| 20260903215049 | 15 | 201 | 0.0 | 0.0 | 0.00 | 0.00 | 0.00 | 90 | 1016.7 |
| 20260903215018 | 15 | 201 | 0.0 | 0.0 | 0.00 | 0.00 | 0.00 | 90 | 1016.5 |
| 20260903215008 | 15 | 201 | 0.0 | 0.0 | 0.00 | 0.00 | 0.00 | 90 | 1016.6 |
| 20260903214734 | 15 | 201 | 0.0 | 0.0 | 0.00 | 0.00 | 0.00 | 90 | 1016.6 |
| 20260903214239 | 15 | 201 | 0.0 | 0.0 | 0.00 | 0.00 | 0.00 | 90 | 1016.6 |
| 20260903214229 | 15 | 201 | 0.0 | 0.0 | 0.00 | 0.00 | 0.00 | 90 | 1016.8 |
| 20260903214213 | 15 | 201 | 0.0 | 0.0 | 0.00 | 0.00 | 0.00 | 90 | 1016.5 |
| 20260903213857 | 15 | 201 | 0.0 | 0.0 | 0.00 | 0.00 | 0.00 | 90 | 1016.6 |
| 20260903213847 | 15 | 201 | 0.0 | 0.0 | 0.00 | 0.00 | 0.00 | 90 | 1016.5 |
| 20260903213843 | 15 | 201 | 0.0 | 0.0 | 0.00 | 0.00 | 0.00 | 90 | 1016.6 |
| 20260903213819 | 15 | 201 | 0.0 | 0.0 | 0.00 | 0.00 | 0.00 | 90 | 1016.9 |
| 20260903213808 | 15 | 201 | 0.0 | 0.0 | 0.00 | 0.00 | 0.00 | 90 | 1016.6 |
| 20260903213752 | 15 | 201 | 0.0 | 0.0 | 0.00 | 0.00 | 0.00 | 90 | 1016.6 |
| 20260903213737 | 15 | 201 | 0.0 | 0.0 | 0.00 | 0.00 | 0.00 | 90 | 1016.4 |
| 20260903213501 | 15 | 201 | 0.0 | 0.0 | 0.00 | 0.00 | 0.00 | 90 | 1016.5 |
| 20260903213232 | 15 | 201 | 0.0 | 0.0 | 0.00 | 0.00 | 0.00 | 90 | 1016.8 |
| 20260903213217 | 15 | 201 | 0.0 | 0.0 | 0.00 | 0.00 | 0.00 | 90 | 1016.5 |
| 20260903213201 | 15 | 201 | 0.0 | 0.0 | 0.00 | 0.00 | 0.00 | 90 | 1016.6 |
| 20260903213144 | 15 | 201 | 0.0 | 0.0 | 0.00 | 0.00 | 0.00 | 90 | 1016.7 |
| 20260903213129 | 15 | 201 | 0.0 | 0.0 | 0.00 | 0.00 | 0.00 | 90 | 1016.6 |
| 20260903212555 | 15 | 201 | 0.0 | 0.0 | 0.00 | 0.00 | 0.00 | 90 | 1016.6 |
| 20260903212453 | 15 | 201 | 0.0 | 0.0 | 0.00 | 0.00 | 0.00 | 90 | 1016.6 |
| 20260903212437 | 15 | 201 | 0.0 | 0.0 | 0.00 | 0.00 | 0.00 | 90 | 1016.6 |
| 20260903212409 | 14 | 201 | 0.0 | 0.0 | 0.00 | 0.00 | 0.00 | 90 | 1016.6 |
| 20260903212054 | 14 | 201 | 0.0 | 0.0 | 0.00 | 0.00 | 0.00 | 90 | 1016.7 |
| 20260903211954 | 14 | 201 | 0.0 | 0.0 | 0.00 | 0.00 | 0.00 | 90 | 1016.7 |
| 20260903211854 | 14 | 201 | 0.0 | 0.0 | 0.00 | 0.00 | 0.00 | 90 | 1016.7 |
| 20260903211738 | 14 | 201 | 0.0 | 0.0 | 0.00 | 0.00 | 0.00 | 90 | 1016.7 |
| 20260903211654 | 14 | 201 | 0.0 | 0.0 | 0.00 | 0.00 | 0.00 | 90 | 1016.8 |
| 20260903211554 | 14 | 201 | 0.0 | 0.0 | 0.00 | 0.00 | 0.00 | 90 | 1016.6 |
| 20260903211454 | 14 | 201 | 0.0 | 0.0 | 0.00 | 0.00 | 0.00 | 90 | 1016.7 |
| 20260903211354 | 14 | 201 | 0.0 | 0.0 | 0.00 | 0.00 | 0.00 | 90 | 1016.8 |
| 20260903211239 | 14 | 201 | 0.0 | 0.0 | 0.00 | 0.00 | 0.00 | 90 | 1016.8 |
| 20260903211155 | 14 | 201 | 0.0 | 0.0 | 0.00 | 0.00 | 0.00 | 90 | 1016.8 |
| 20260903211055 | 14 | 201 | 0.0 | 0.0 | 0.00 | 0.00 | 0.00 | 90 | 1016.7 |
| 20260903210954 | 14 | 201 | 0.0 | 0.0 | 0.00 | 0.00 | 0.00 | 90 | 1016.8 |
| 20260903210938 | 14 | 201 | 0.0 | 0.0 | 0.00 | 0.00 | 0.00 | 90 | 1016.6 |
| 20260903210909 | 14 | 201 | 0.0 | 0.0 | 0.00 | 0.00 | 0.00 | 90 | 1016.6 |
| 20260903210554 | 14 | 201 | 0.0 | 0.0 | 0.00 | 0.00 | 0.00 | 90 | 1016.7 |
| 20260903210529 | 14 | 201 | 0.0 | 0.0 | 0.00 | 0.00 | 0.00 | 90 | 1016.7 |
| 20260903210513 | 15 | 201 | 0.0 | 0.0 | 0.00 | 0.00 | 0.00 | 90 | 1016.8 |
| 20260903210241 | 15 | 201 | 0.0 | 0.0 | 0.00 | 0.00 | 0.00 | 90 | 1016.8 |
| 20260903210230 | 15 | 201 | 0.0 | 0.0 | 0.00 | 0.00 | 0.00 | 90 | 1016.7 |
| 20260903210215 | 15 | 201 | 0.0 | 0.0 | 0.00 | 0.00 | 0.00 | 90 | 1016.8 |
| 20260903205855 | 15 | 201 | 0.0 | 0.0 | 0.00 | 0.00 | 0.00 | 90 | 1016.7 |
| 20260903205738 | 15 | 201 | 0.0 | 0.0 | 0.00 | 0.00 | 0.00 | 90 | 1016.7 |
| 20260903205654 | 15 | 201 | 0.0 | 0.0 | 0.00 | 0.00 | 0.00 | 90 | 1016.6 |
| 20260903205555 | 15 | 201 | 0.0 | 0.0 | 0.00 | 0.00 | 0.00 | 90 | 1016.7 |
| 20260903205454 | 15 | 201 | 0.0 | 0.0 | 0.00 | 0.00 | 0.00 | 90 | 1016.5 |
| 20260903205354 | 15 | 201 | 0.0 | 0.0 | 0.00 | 0.00 | 0.00 | 90 | 1016.9 |
| 20260903205258 | 15 | 201 | 0.0 | 0.0 | 0.00 | 0.00 | 0.00 | 90 | 1016.7 |
| 20260903205247 | 15 | 201 | 0.0 | 0.0 | 0.00 | 0.00 | 0.00 | 90 | 1016.7 |
| 20260903205241 | 14 | 201 | 0.0 | 0.0 | 0.00 | 0.00 | 0.00 | 90 | 1016.7 |
| 20260903205230 | 14 | 201 | 0.0 | 0.0 | 0.00 | 0.00 | 0.00 | 90 | 1016.7 |
| 20260903205215 | 14 | 201 | 0.0 | 0.0 | 0.00 | 0.00 | 0.00 | 90 | 1016.5 |
| 20260903205159 | 14 | 201 | 0.0 | 0.0 | 0.00 | 0.00 | 0.00 | 90 | 1016.6 |
| 20260903205144 | 14 | 201 | 0.0 | 0.0 | 0.00 | 0.00 | 0.00 | 90 | 1016.5 |
| 20260903205128 | 15 | 201 | 0.0 | 0.0 | 0.00 | 0.00 | 0.00 | 90 | 1016.7 |
| 20260903204554 | 15 | 201 | 0.0 | 0.0 | 0.00 | 0.00 | 0.00 | 90 | 1016.4 |
| 20260903204515 | 15 | 201 | 0.0 | 0.0 | 0.00 | 0.00 | 0.00 | 90 | 1016.5 |
| 20260903204510 | 15 | 201 | 0.0 | 0.0 | 0.00 | 0.00 | 0.00 | 89 | 1016.5 |
| 20260903204503 | 15 | 201 | 0.0 | 0.0 | 0.00 | 0.00 | 0.00 | 90 | 1016.7 |
| 20260903204447 | 15 | 201 | 0.0 | 0.0 | 0.00 | 0.00 | 0.00 | 90 | 1016.7 |
| 20260903204420 | 15 | 201 | 0.0 | 0.0 | 0.00 | 0.00 | 0.00 | 90 | 1016.5 |
| 20260903204409 | 15 | 201 | 0.0 | 0.0 | 0.00 | 0.00 | 0.00 | 90 | 1016.7 |
| 20260903204353 | 15 | 201 | 0.0 | 0.0 | 0.00 | 0.00 | 0.00 | 90 | 1016.7 |
| 20260903204337 | 15 | 201 | 0.0 | 0.0 | 0.00 | 0.00 | 0.00 | 90 | 1016.7 |
| 20260903204321 | 15 | 201 | 0.0 | 0.0 | 0.00 | 0.00 | 0.00 | 90 | 1016.5 |
| 20260903204306 | 15 | 201 | 0.0 | 0.0 | 0.00 | 0.00 | 0.00 | 90 | 1016.5 |
| 20260903204037 | 15 | 201 | 0.0 | 0.0 | 0.00 | 0.00 | 0.00 | 90 | 1016.6 |
| 20260903204022 | 15 | 201 | 0.0 | 0.0 | 0.00 | 0.00 | 0.00 | 89 | 1016.6 |
| 20260903204005 | 15 | 201 | 0.0 | 0.0 | 0.00 | 0.00 | 0.00 | 89 | 1016.6 |
| 20260903203948 | 15 | 201 | 0.0 | 0.0 | 0.00 | 0.00 | 0.00 | 89 | 1016.8 |
| 20260903203932 | 15 | 201 | 0.0 | 0.0 | 0.00 | 0.00 | 0.00 | 89 | 1016.5 |
| 20260903203444 | 15 | 201 | 0.0 | 0.0 | 0.00 | 0.00 | 0.00 | 89 | 1016.7 |
| 20260903203429 | 15 | 201 | 0.0 | 0.0 | 0.00 | 0.00 | 0.00 | 89 | 1016.8 |
| 20260903203413 | 15 | 201 | 0.0 | 0.0 | 0.00 | 0.00 | 0.00 | 89 | 1016.9 |
| 20260903203344 | 15 | 201 | 0.0 | 0.0 | 0.00 | 0.00 | 0.00 | 89 | 1016.6 |
| 20260903203334 | 15 | 201 | 0.0 | 0.0 | 0.00 | 0.00 | 0.00 | 89 | 1016.6 |
| 20260903202606 | 15 | 201 | 0.0 | 0.0 | 0.00 | 0.00 | 0.00 | 89 | 1016.5 |
| 20260903202335 | 15 | 201 | 0.0 | 0.0 | 0.00 | 0.00 | 0.00 | 89 | 1016.6 |
| 20260903202319 | 15 | 201 | 0.0 | 0.0 | 0.00 | 0.00 | 0.00 | 89 | 1016.6 |
| 20260903202306 | 15 | 201 | 0.0 | 0.0 | 0.00 | 0.00 | 0.00 | 89 | 1016.7 |
| 20260903202029 | 15 | 201 | 0.0 | 0.0 | 0.00 | 0.00 | 0.00 | 89 | 1016.7 |
| 20260903201453 | 15 | 201 | 0.0 | 0.0 | 0.00 | 0.00 | 0.00 | 88 | 1016.7 |
| 20260903201404 | 15 | 201 | 0.0 | 0.0 | 0.00 | 0.00 | 0.00 | 88 | 1016.9 |
| 20260903201335 | 15 | 201 | 0.0 | 0.0 | 0.00 | 0.00 | 0.00 | 88 | 1016.7 |
| 20260903201312 | 15 | 201 | 0.0 | 0.0 | 0.00 | 0.00 | 0.00 | 88 | 1016.9 |
| 20260903200954 | 16 | 201 | 0.0 | 0.0 | 0.00 | 0.00 | 0.00 | 88 | 1016.9 |
| 20260903200854 | 16 | 201 | 0.0 | 0.0 | 0.00 | 0.00 | 0.00 | 88 | 1016.7 |
| 20260903200738 | 16 | 201 | 0.0 | 0.0 | 0.00 | 0.00 | 0.00 | 88 | 1016.8 |
| 20260903200655 | 16 | 201 | 0.0 | 0.0 | 0.00 | 0.00 | 0.00 | 88 | 1016.9 |
| 20260903200554 | 16 | 201 | 0.0 | 0.0 | 0.00 | 0.00 | 0.00 | 88 | 1016.8 |
| 20260903200454 | 16 | 201 | 0.0 | 0.0 | 0.00 | 0.00 | 0.00 | 88 | 1016.9 |
| 20260903200354 | 16 | 201 | 0.0 | 0.0 | 0.00 | 0.00 | 0.00 | 88 | 1016.6 |
| 20260903200238 | 16 | 201 | 0.0 | 0.0 | 0.00 | 0.00 | 0.00 | 88 | 1016.9 |
| 20260903200154 | 16 | 201 | 0.0 | 0.0 | 0.00 | 0.00 | 0.00 | 88 | 1016.8 |
| 20260903200054 | 16 | 201 | 0.0 | 0.0 | 0.00 | 0.00 | 0.00 | 88 | 1016.8 |
| 20260903195955 | 16 | 201 | 0.0 | 0.0 | 0.00 | 0.00 | 0.00 | 88 | 1016.7 |
| 20260903195854 | 16 | 201 | 0.0 | 0.0 | 0.00 | 0.00 | 0.00 | 87 | 1017.0 |
| 20260903195742 | 16 | 201 | 0.0 | 0.0 | 0.00 | 0.00 | 0.00 | 87 | 1016.7 |
| 20260903195731 | 16 | 201 | 0.0 | 0.0 | 0.00 | 0.00 | 0.00 | 87 | 1016.6 |
| 20260903195716 | 16 | 201 | 0.0 | 0.0 | 0.00 | 0.00 | 0.00 | 87 | 1016.6 |
| 20260903195355 | 16 | 201 | 0.0 | 0.0 | 0.00 | 0.00 | 0.00 | 86 | 1017.0 |
| 20260903195336 | 16 | 201 | 0.0 | 0.0 | 0.00 | 0.00 | 0.00 | 85 | 1016.6 |
| 20260903195315 | 16 | 201 | 0.0 | 0.0 | 0.00 | 0.00 | 0.00 | 86 | 1016.8 |
| 20260903195306 | 16 | 201 | 0.0 | 0.0 | 0.00 | 0.00 | 0.00 | 86 | 1016.8 |
| 20260903195248 | 16 | 201 | 0.0 | 0.0 | 0.00 | 0.00 | 0.00 | 86 | 1016.8 |
| 20260903195011 | 16 | 201 | 0.0 | 0.0 | 0.00 | 0.00 | 0.00 | 85 | 1016.8 |
| 20260903194956 | 16 | 201 | 0.0 | 0.0 | 0.00 | 0.00 | 0.00 | 85 | 1016.6 |
| 20260903194656 | 16 | 201 | 0.0 | 0.0 | 0.00 | 0.00 | 0.00 | 85 | 1017.0 |
| 20260903194554 | 16 | 201 | 0.0 | 0.0 | 0.00 | 0.00 | 0.00 | 85 | 1016.7 |
| 20260903194454 | 16 | 201 | 0.0 | 0.0 | 0.00 | 0.00 | 0.00 | 85 | 1016.9 |
| 20260903194354 | 16 | 201 | 0.0 | 0.0 | 0.00 | 0.00 | 0.00 | 85 | 1016.8 |
| 20260903194325 | 16 | 201 | 0.0 | 0.0 | 0.00 | 0.00 | 0.00 | 85 | 1016.7 |
| 20260903194314 | 16 | 201 | 0.0 | 0.0 | 0.00 | 0.00 | 0.00 | 85 | 1016.9 |
| 20260903193954 | 16 | 201 | 0.0 | 0.0 | 0.00 | 0.00 | 0.00 | 85 | 1016.7 |
| 20260903193854 | 16 | 201 | 0.0 | 0.0 | 0.00 | 0.00 | 0.00 | 85 | 1017.0 |
| 20260903193754 | 16 | 200 | 0.0 | 0.0 | 0.00 | 0.00 | 0.00 | 85 | 1016.8 |
| 20260903193738 | 16 | 201 | 0.0 | 0.0 | 0.00 | 0.00 | 0.00 | 85 | 1016.8 |
| 20260903193655 | 16 | 201 | 0.0 | 0.0 | 0.00 | 0.00 | 0.00 | 85 | 1016.9 |
| 20260903193554 | 16 | 200 | 0.0 | 0.0 | 0.00 | 0.00 | 0.00 | 85 | 1016.8 |
| 20260903193454 | 16 | 200 | 0.0 | 0.0 | 0.00 | 0.00 | 0.00 | 85 | 1016.9 |
| 20260903193354 | 16 | 200 | 0.0 | 0.0 | 0.00 | 0.00 | 0.00 | 85 | 1016.7 |
| 20260903193237 | 16 | 200 | 0.0 | 0.0 | 0.00 | 0.00 | 0.00 | 85 | 1017.0 |
| 20260903193154 | 16 | 200 | 0.0 | 0.0 | 0.00 | 0.00 | 0.00 | 84 | 1016.7 |
| 20260903193055 | 16 | 200 | 0.0 | 0.0 | 0.00 | 0.00 | 0.00 | 84 | 1016.8 |
| 20260903192954 | 16 | 200 | 0.0 | 0.0 | 0.00 | 0.00 | 0.00 | 84 | 1016.9 |
| 20260903192855 | 16 | 200 | 0.0 | 0.0 | 0.00 | 0.00 | 0.00 | 84 | 1016.8 |
| 20260903192825 | 16 | 200 | 0.0 | 0.0 | 0.00 | 0.00 | 0.00 | 84 | 1016.9 |
| 20260903192815 | 16 | 200 | 0.0 | 0.0 | 0.00 | 0.00 | 0.00 | 84 | 1017.0 |
| 20260903192522 | 16 | 200 | 0.0 | 0.0 | 0.00 | 0.00 | 0.00 | 83 | 1017.1 |
| 20260903192517 | 16 | 200 | 0.0 | 0.0 | 0.00 | 0.00 | 0.00 | 83 | 1017.1 |
| 20260903192510 | 16 | 200 | 0.0 | 0.0 | 0.00 | 0.00 | 0.00 | 84 | 1016.7 |
| 20260903192454 | 16 | 200 | 0.0 | 0.0 | 0.00 | 0.00 | 0.00 | 84 | 1016.8 |
| 20260903192427 | 16 | 200 | 0.0 | 0.0 | 0.00 | 0.00 | 0.00 | 84 | 1017.1 |
| 20260903192417 | 16 | 200 | 0.0 | 0.0 | 0.00 | 0.00 | 0.00 | 84 | 1016.9 |
| 20260903192403 | 16 | 200 | 0.0 | 0.0 | 0.00 | 0.00 | 0.00 | 84 | 1016.9 |
| 20260903191920 | 16 | 200 | 0.0 | 0.0 | 0.00 | 0.00 | 0.00 | 84 | 1017.0 |
| 20260903191850 | 16 | 200 | 0.0 | 0.0 | 0.00 | 0.00 | 0.00 | 84 | 1017.2 |
| 20260903191839 | 16 | 200 | 0.0 | 0.0 | 0.00 | 0.00 | 0.00 | 84 | 1017.2 |
| 20260903191824 | 16 | 200 | 0.0 | 0.0 | 0.00 | 0.00 | 0.00 | 84 | 1016.9 |
| 20260903191808 | 16 | 200 | 0.0 | 0.0 | 0.00 | 0.00 | 0.00 | 84 | 1017.1 |
| 20260903191532 | 16 | 200 | 0.0 | 0.0 | 0.00 | 0.00 | 0.00 | 83 | 1017.1 |
| 20260903191305 | 16 | 200 | 0.0 | 0.0 | 0.00 | 0.00 | 0.00 | 83 | 1017.0 |
| 20260903191250 | 16 | 200 | 0.0 | 0.0 | 0.00 | 0.00 | 0.00 | 83 | 1017.0 |
| 20260903191235 | 16 | 200 | 0.0 | 0.0 | 0.00 | 0.00 | 0.00 | 83 | 1016.8 |
| 20260903191219 | 16 | 200 | 0.0 | 0.0 | 0.00 | 0.00 | 0.00 | 83 | 1016.9 |
| 20260903191203 | 16 | 200 | 0.0 | 0.0 | 0.00 | 0.00 | 0.00 | 83 | 1017.1 |
| 20260903190714 | 16 | 199 | 0.0 | 0.0 | 0.00 | 0.00 | 0.00 | 83 | 1017.2 |
| 20260903190354 | 16 | 199 | 0.0 | 0.0 | 0.00 | 0.00 | 0.00 | 83 | 1016.9 |
| 20260903190239 | 16 | 199 | 0.0 | 0.0 | 0.00 | 0.00 | 0.00 | 83 | 1016.9 |
| 20260903190154 | 16 | 199 | 0.0 | 0.0 | 0.00 | 0.00 | 0.00 | 83 | 1017.0 |
| 20260903190129 | 16 | 199 | 0.0 | 0.0 | 0.00 | 0.00 | 0.00 | 83 | 1017.1 |
| 20260903190113 | 16 | 199 | 0.0 | 0.0 | 0.00 | 0.00 | 0.00 | 83 | 1017.1 |
| 20260903185738 | 16 | 199 | 0.0 | 0.0 | 0.00 | 0.00 | 0.00 | 83 | 1017.0 |
| 20260903185654 | 16 | 199 | 0.0 | 0.0 | 0.00 | 0.00 | 0.00 | 83 | 1016.9 |
| 20260903185623 | 16 | 199 | 0.0 | 0.0 | 0.00 | 0.00 | 0.00 | 83 | 1017.2 |
| 20260903185535 | 16 | 199 | 0.0 | 0.0 | 0.00 | 0.00 | 0.00 | 83 | 1017.3 |
| 20260903185519 | 16 | 199 | 0.0 | 0.0 | 0.00 | 0.00 | 0.00 | 83 | 1017.0 |
| 20260903185238 | 16 | 199 | 0.0 | 0.0 | 0.00 | 0.00 | 0.00 | 82 | 1016.9 |
| 20260903185155 | 16 | 199 | 0.0 | 0.0 | 0.00 | 0.00 | 0.00 | 83 | 1017.1 |
| 20260903185054 | 16 | 199 | 0.0 | 0.0 | 0.00 | 0.00 | 0.00 | 82 | 1017.0 |
| 20260903184954 | 16 | 199 | 0.0 | 0.0 | 0.00 | 0.00 | 0.00 | 83 | 1017.0 |
| 20260903184854 | 16 | 199 | 0.0 | 0.0 | 0.00 | 0.00 | 0.00 | 82 | 1017.0 |
| 20260903184754 | 16 | 199 | 0.0 | 0.0 | 0.00 | 0.00 | 0.00 | 83 | 1017.0 |
| 20260903184738 | 16 | 199 | 0.0 | 0.0 | 0.00 | 0.00 | 0.00 | 83 | 1017.2 |
| 20260903184654 | 16 | 198 | 0.0 | 0.0 | 0.00 | 0.00 | 0.00 | 82 | 1017.2 |
| 20260903184554 | 16 | 198 | 0.0 | 0.0 | 0.00 | 0.00 | 0.00 | 83 | 1016.9 |
| 20260903184526 | 17 | 196 | 0.0 | 0.0 | 0.00 | 0.00 | 0.00 | 80 | 1017.2 |
| 20260903184518 | 17 | 198 | 0.0 | 0.0 | 0.00 | 0.00 | 0.00 | 82 | 1017.1 |
| 20260903184503 | 17 | 198 | 0.0 | 0.0 | 0.00 | 0.00 | 0.00 | 82 | 1017.2 |
| 20260903184434 | 16 | 198 | 0.0 | 0.0 | 0.00 | 0.00 | 0.00 | 82 | 1017.0 |
| 20260903184423 | 16 | 198 | 0.0 | 0.0 | 0.00 | 0.00 | 0.00 | 81 | 1017.0 |
| 20260903184408 | 17 | 198 | 0.0 | 0.0 | 0.00 | 0.00 | 0.00 | 81 | 1017.1 |
| 20260903184352 | 17 | 198 | 0.0 | 0.0 | 0.00 | 0.00 | 0.00 | 81 | 1017.1 |
| 20260903184336 | 17 | 198 | 0.0 | 0.0 | 0.00 | 0.00 | 0.00 | 81 | 1017.2 |
| 20260903184102 | 17 | 196 | 0.0 | 0.0 | 0.00 | 0.00 | 0.00 | 81 | 1017.1 |
| 20260903183832 | 17 | 195 | 0.0 | 0.0 | 0.00 | 0.00 | 0.00 | 81 | 1017.4 |
| 20260903183817 | 17 | 195 | 0.0 | 0.0 | 0.00 | 0.00 | 0.00 | 81 | 1017.3 |
| 20260903183801 | 17 | 195 | 0.0 | 0.0 | 0.00 | 0.00 | 0.00 | 81 | 1017.3 |
| 20260903183726 | 17 | 196 | 0.0 | 0.0 | 0.00 | 0.00 | 0.00 | 81 | 1017.1 |
| 20260903183715 | 17 | 195 | 0.0 | 0.0 | 0.00 | 0.00 | 0.00 | 81 | 1017.2 |
| 20260903183659 | 17 | 195 | 0.0 | 0.0 | 0.00 | 0.00 | 0.00 | 81 | 1017.4 |
| 20260903183643 | 17 | 197 | 0.0 | 0.0 | 0.00 | 0.00 | 0.00 | 81 | 1017.1 |
| 20260903183627 | 17 | 197 | 0.0 | 0.0 | 0.00 | 0.00 | 0.00 | 81 | 1017.1 |
| 20260903183611 | 17 | 196 | 0.0 | 0.0 | 0.00 | 0.00 | 0.00 | 80 | 1017.2 |
| 20260903183342 | 17 | 196 | 0.0 | 0.0 | 0.00 | 0.00 | 0.00 | 80 | 1017.3 |
| 20260903182408 | 17 | 268 | 0.0 | 0.0 | 0.00 | 0.00 | 0.00 | 80 | 1017.2 |
| 20260903182100 | 17 | 196 | 0.0 | 0.0 | 0.00 | 0.00 | 0.00 | 80 | 1017.2 |
| 20260903182038 | 17 | 196 | 0.0 | 0.0 | 0.00 | 0.00 | 0.00 | 80 | 1017.1 |
| 20260903182015 | 17 | 196 | 0.0 | 0.0 | 0.00 | 0.00 | 0.00 | 80 | 1017.2 |
| 20260903181738 | 17 | 196 | 0.0 | 0.0 | 0.00 | 0.00 | 0.00 | 80 | 1017.1 |
| 20260903181703 | 17 | 196 | 0.0 | 0.0 | 0.00 | 0.00 | 0.00 | 79 | 1016.9 |
| 20260903181555 | 17 | 196 | 0.0 | 0.0 | 0.00 | 0.00 | 0.00 | 79 | 1017.0 |
| 20260903181454 | 18 | 196 | 0.0 | 0.0 | 0.00 | 0.00 | 0.00 | 79 | 1017.1 |
| 20260903181355 | 18 | 196 | 0.0 | 0.0 | 0.00 | 0.00 | 0.00 | 79 | 1017.1 |
| 20260903181240 | 18 | 196 | 0.0 | 0.0 | 0.00 | 0.00 | 0.00 | 79 | 1017.0 |
| 20260903181230 | 18 | 196 | 0.0 | 0.0 | 0.00 | 0.00 | 0.00 | 79 | 1017.0 |
| 20260903181214 | 18 | 196 | 0.0 | 0.0 | 0.00 | 0.00 | 0.00 | 79 | 1017.0 |
| 20260903180855 | 18 | 196 | 0.0 | 0.0 | 0.00 | 0.00 | 0.00 | 79 | 1017.0 |
| 20260903180758 | 18 | 197 | 0.0 | 0.0 | 0.00 | 0.00 | 0.00 | 74 | 1017.2 |
| 20260903180740 | 18 | 196 | 0.0 | 0.0 | 0.00 | 0.00 | 0.00 | 78 | 1017.2 |
| 20260903180733 | 18 | 197 | 0.0 | 0.0 | 0.00 | 0.00 | 0.00 | 76 | 1017.1 |
| 20260903180725 | 18 | 196 | 0.0 | 0.0 | 0.00 | 0.00 | 0.00 | 78 | 1017.2 |
| 20260903180710 | 18 | 197 | 0.0 | 0.0 | 0.00 | 0.00 | 0.00 | 78 | 1017.2 |
| 20260903180653 | 18 | 196 | 0.0 | 0.0 | 0.00 | 0.00 | 0.00 | 77 | 1017.0 |
| 20260903180637 | 18 | 197 | 0.0 | 0.0 | 0.00 | 0.00 | 0.00 | 77 | 1017.1 |
| 20260903180620 | 18 | 197 | 0.0 | 0.0 | 0.00 | 0.00 | 0.00 | 76 | 1017.1 |
| 20260903180354 | 18 | 197 | 0.0 | 0.0 | 0.00 | 0.00 | 0.00 | 76 | 1017.0 |
| 20260903180130 | 18 | 197 | 0.0 | 0.0 | 0.00 | 0.00 | 0.00 | 75 | 1017.0 |
| 20260903180114 | 18 | 197 | 0.0 | 0.0 | 0.00 | 0.00 | 0.00 | 75 | 1016.9 |
| 20260903180058 | 18 | 199 | 0.0 | 0.0 | 0.00 | 0.00 | 0.00 | 75 | 1017.1 |
| 20260903180043 | 18 | 197 | 0.0 | 0.0 | 0.00 | 0.00 | 0.00 | 74 | 1017.2 |
| 20260903175814 | 18 | 197 | 0.0 | 0.0 | 0.00 | 0.00 | 0.00 | 74 | 1016.9 |
| 20260903175529 | 18 | 197 | 0.0 | 0.0 | 0.00 | 0.00 | 0.00 | 74 | 1017.0 |
| 20260903175514 | 18 | 197 | 0.0 | 0.0 | 0.00 | 0.00 | 0.00 | 74 | 1017.2 |
| 20260903175239 | 18 | 197 | 0.0 | 0.0 | 0.00 | 0.00 | 0.00 | 74 | 1017.2 |
| 20260903175218 | 18 | 197 | 0.0 | 0.0 | 0.00 | 0.00 | 0.00 | 75 | 1017.0 |
| 20260903175213 | 18 | 197 | 0.0 | 0.0 | 0.00 | 0.00 | 0.00 | 74 | 1017.1 |
| 20260903175206 | 18 | 197 | 0.0 | 0.0 | 0.00 | 0.00 | 0.00 | 75 | 1016.9 |
| 20260903175149 | 18 | 197 | 0.0 | 0.0 | 0.00 | 0.00 | 0.00 | 75 | 1017.0 |
| 20260903175116 | 18 | 197 | 0.0 | 0.0 | 0.00 | 0.00 | 0.00 | 75 | 1016.9 |
| 20260903175054 | 18 | 197 | 0.0 | 0.0 | 0.00 | 0.00 | 0.00 | 75 | 1016.9 |
| 20260903175037 | 18 | 197 | 0.0 | 0.0 | 0.00 | 0.00 | 0.00 | 75 | 1017.0 |
| 20260903174808 | 18 | 197 | 0.0 | 0.0 | 0.00 | 0.00 | 0.00 | 76 | 1017.1 |
| 20260903174752 | 18 | 197 | 0.0 | 0.0 | 0.00 | 0.00 | 0.00 | 76 | 1017.3 |
| 20260903174735 | 18 | 197 | 0.0 | 0.0 | 0.00 | 0.00 | 0.00 | 75 | 1017.0 |
| 20260903174720 | 18 | 197 | 0.0 | 0.0 | 0.00 | 0.00 | 0.00 | 75 | 1017.0 |
| 20260903174652 | 18 | 197 | 0.0 | 0.0 | 0.00 | 0.00 | 0.00 | 75 | 1017.0 |
| 20260903174200 | 18 | 197 | 0.0 | 0.0 | 0.00 | 0.00 | 0.00 | 74 | 1017.0 |
| 20260903174144 | 18 | 196 | 0.0 | 0.0 | 0.00 | 0.00 | 0.00 | 74 | 1017.1 |
| 20260903174128 | 18 | 197 | 0.0 | 0.0 | 0.00 | 0.00 | 0.00 | 74 | 1017.1 |
| 20260903173639 | 19 | 198 | 0.0 | 0.0 | 0.00 | 0.00 | 0.00 | 75 | 1017.0 |
| 20260903173629 | 18 | 197 | 0.0 | 0.0 | 0.00 | 0.00 | 0.00 | 74 | 1016.8 |
| 20260903173613 | 18 | 196 | 0.0 | 0.0 | 0.00 | 0.00 | 0.00 | 74 | 1017.0 |
| 20260903173555 | 18 | 196 | 0.0 | 0.0 | 0.00 | 0.00 | 0.00 | 74 | 1016.9 |
| 20260903173540 | 19 | 197 | 0.0 | 0.0 | 0.00 | 0.00 | 0.00 | 74 | 1017.0 |
| 20260903173528 | 19 | 197 | 0.0 | 0.0 | 0.00 | 0.00 | 0.00 | 75 | 1017.0 |
| 20260903173518 | 19 | 197 | 0.0 | 0.0 | 0.00 | 0.00 | 0.00 | 75 | 1017.0 |
| 20260903173502 | 19 | 196 | 0.0 | 0.0 | 0.00 | 0.00 | 0.00 | 75 | 1016.9 |
| 20260903173445 | 19 | 196 | 0.0 | 0.0 | 0.00 | 0.00 | 0.00 | 75 | 1017.1 |
| 20260903173429 | 19 | 196 | 0.0 | 0.0 | 0.00 | 0.00 | 0.00 | 75 | 1017.0 |
| 20260903173155 | 19 | 196 | 0.0 | 0.0 | 0.00 | 0.00 | 0.00 | 75 | 1017.1 |
| 20260903173145 | 19 | 196 | 0.0 | 0.0 | 0.00 | 0.00 | 0.00 | 75 | 1017.1 |
| 20260903172642 | 19 | 196 | 0.0 | 0.0 | 0.00 | 0.00 | 0.00 | 75 | 1017.1 |
| 20260903172625 | 19 | 196 | 0.0 | 0.0 | 0.00 | 0.00 | 0.00 | 75 | 1017.0 |
| 20260903172056 | 19 | 195 | 0.0 | 0.0 | 0.00 | 0.00 | 0.00 | 74 | 1017.0 |
| 20260903172044 | 20 | 194 | 0.0 | 0.0 | 0.00 | 0.00 | 0.00 | 73 | 1016.9 |
| 20260903172033 | 20 | 194 | 0.0 | 0.0 | 0.00 | 0.00 | 0.00 | 74 | 1017.0 |
| 20260903172018 | 20 | 194 | 0.0 | 0.0 | 0.00 | 0.00 | 0.00 | 74 | 1016.9 |
| 20260903172001 | 20 | 194 | 0.0 | 0.0 | 0.00 | 0.00 | 0.00 | 73 | 1016.8 |
| 20260903171738 | 20 | 194 | 0.0 | 0.0 | 0.00 | 0.00 | 0.00 | 73 | 1016.8 |
| 20260903171727 | 20 | 194 | 0.0 | 0.0 | 0.00 | 0.00 | 0.00 | 73 | 1016.9 |
| 20260903171712 | 20 | 194 | 0.0 | 0.0 | 0.00 | 0.00 | 0.00 | 73 | 1017.1 |
| 20260903171651 | 20 | 194 | 0.0 | 0.0 | 0.00 | 0.00 | 0.00 | 73 | 1016.8 |
| 20260903171635 | 20 | 194 | 0.0 | 0.0 | 0.00 | 0.00 | 0.00 | 72 | 1017.0 |
| 20260903171619 | 20 | 194 | 0.0 | 0.0 | 0.00 | 0.00 | 0.00 | 73 | 1016.9 |
| 20260903171352 | 20 | 194 | 0.0 | 0.0 | 0.00 | 0.00 | 0.00 | 72 | 1017.1 |
| 20260903171335 | 20 | 194 | 0.0 | 0.0 | 0.00 | 0.00 | 0.00 | 73 | 1017.0 |
| 20260903170741 | 20 | 107 | 0.0 | 0.0 | 0.00 | 0.00 | 0.00 | 73 | 1017.1 |
| 20260903170641 | 20 | 192 | 0.0 | 0.0 | 0.00 | 0.00 | 0.00 | 72 | 1017.0 |
| 20260903170541 | 20 | 195 | 0.0 | 0.0 | 0.00 | 0.00 | 0.00 | 72 | 1016.9 |
| 20260903170452 | 20 | 192 | 0.0 | 0.0 | 0.00 | 0.00 | 0.00 | 73 | 1016.9 |
| 20260903170436 | 20 | 196 | 0.0 | 0.0 | 0.00 | 0.00 | 0.00 | 72 | 1016.8 |
| 20260903170413 | 20 | 199 | 0.0 | 0.0 | 0.00 | 0.00 | 0.00 | 73 | 1017.0 |
| 20260903170357 | 20 | 196 | 0.0 | 0.0 | 0.00 | 0.00 | 0.00 | 72 | 1016.9 |
| 20260903170341 | 20 | 192 | 0.0 | 0.0 | 0.00 | 0.00 | 0.00 | 73 | 1016.9 |
| 20260903170105 | 20 | 196 | 0.0 | 0.0 | 0.00 | 0.00 | 0.00 | 72 | 1017.1 |
| 20260903170039 | 20 | 194 | 0.0 | 0.0 | 0.00 | 0.00 | 0.00 | 73 | 1016.9 |
| 20260903170022 | 20 | 195 | 0.0 | 0.0 | 0.00 | 0.00 | 0.00 | 72 | 1017.0 |
| 20260903170006 | 20 | 198 | 0.0 | 0.0 | 0.00 | 0.00 | 0.00 | 72 | 1017.1 |
| 20260903165501 | 20 | 195 | 0.0 | 0.0 | 0.00 | 0.00 | 0.00 | 72 | 1016.9 |
| 20260903164918 | 20 | 194 | 0.0 | 0.0 | 0.00 | 0.00 | 0.00 | 71 | 1017.0 |
| 20260903164819 | 20 | 196 | 0.0 | 0.0 | 0.00 | 0.00 | 0.00 | 71 | 1016.8 |
| 20260903164716 | 20 | 196 | 0.0 | 0.0 | 0.00 | 0.00 | 0.00 | 71 | 1016.8 |
| 20260903164318 | 20 | 197 | 0.0 | 0.0 | 0.00 | 0.00 | 0.00 | 71 | 1017.1 |
| 20260903164301 | 20 | 195 | 0.0 | 0.0 | 0.00 | 0.00 | 0.00 | 70 | 1016.9 |
| 20260903163939 | 20 | 195 | 0.0 | 0.0 | 0.00 | 0.00 | 0.00 | 70 | 1016.9 |
| 20260903163847 | 20 | 192 | 0.0 | 0.0 | 0.00 | 0.00 | 0.00 | 69 | 1016.9 |
| 20260903163842 | 20 | 194 | 0.0 | 0.0 | 0.00 | 0.00 | 0.00 | 70 | 1017.0 |
| 20260903163817 | 20 | 194 | 0.0 | 0.0 | 0.00 | 0.00 | 0.00 | 69 | 1017.0 |
| 20260903163801 | 20 | 188 | 0.0 | 0.0 | 0.00 | 0.00 | 0.00 | 69 | 1016.8 |
| 20260903163744 | 20 | 194 | 0.0 | 0.0 | 0.00 | 0.00 | 0.00 | 69 | 1017.0 |
| 20260903163729 | 20 | 192 | 0.0 | 0.0 | 0.00 | 0.00 | 0.00 | 69 | 1016.8 |
| 20260903163451 | 20 | 192 | 0.0 | 0.0 | 0.00 | 0.00 | 0.00 | 69 | 1016.9 |
| 20260903163140 | 20 | 187 | 0.0 | 0.0 | 0.00 | 0.00 | 0.00 | 69 | 1016.8 |
| 20260903163039 | 21 | 188 | 0.0 | 0.0 | 0.00 | 0.00 | 0.00 | 69 | 1016.6 |
| 20260903162935 | 21 | 196 | 0.0 | 0.0 | 0.00 | 0.00 | 0.00 | 69 | 1016.8 |
| 20260903162913 | 21 | 198 | 0.0 | 0.0 | 0.00 | 0.00 | 0.00 | 69 | 1016.9 |
| 20260903162848 | 21 | 199 | 0.0 | 0.0 | 0.00 | 0.00 | 0.00 | 69 | 1016.8 |
| 20260903162832 | 21 | 199 | 0.0 | 0.0 | 0.00 | 0.00 | 0.00 | 68 | 1016.9 |
| 20260903162815 | 21 | 191 | 0.0 | 1.6 | 0.00 | 0.00 | 0.00 | 68 | 1016.6 |
| 20260903162759 | 21 | 191 | 0.0 | 1.6 | 0.00 | 0.00 | 0.00 | 68 | 1016.6 |
| 20260903162743 | 21 | 190 | 0.0 | 1.6 | 0.00 | 0.00 | 0.00 | 68 | 1016.7 |
| 20260903162516 | 21 | 192 | 0.0 | 1.6 | 0.00 | 0.00 | 0.00 | 68 | 1016.6 |
| 20260903161934 | 21 | 191 | 0.0 | 1.6 | 0.00 | 0.00 | 0.00 | 68 | 1016.8 |
| 20260903161838 | 21 | 187 | 0.0 | 1.6 | 0.00 | 0.00 | 0.00 | 68 | 1016.9 |
| 20260903161813 | 21 | 186 | 0.0 | 1.6 | 0.00 | 0.00 | 0.00 | 67 | 1016.9 |
| 20260903161756 | 21 | 196 | 0.0 | 1.6 | 0.00 | 0.00 | 0.00 | 67 | 1017.0 |
| 20260903161446 | 21 | 203 | 0.0 | 1.6 | 0.00 | 0.00 | 0.00 | 66 | 1016.7 |
| 20260903161439 | 21 | 203 | 0.0 | 1.6 | 0.00 | 0.00 | 0.00 | 67 | 1016.8 |
| 20260903161422 | 21 | 200 | 0.0 | 1.6 | 0.00 | 0.00 | 0.00 | 67 | 1016.9 |
| 20260903161359 | 21 | 195 | 0.0 | 1.6 | 0.00 | 0.00 | 0.00 | 67 | 1016.7 |
| 20260903161342 | 21 | 193 | 0.0 | 1.6 | 0.00 | 0.00 | 0.00 | 67 | 1016.7 |
| 20260903161118 | 21 | 190 | 0.0 | 1.6 | 0.00 | 0.00 | 0.00 | 67 | 1016.7 |
| 20260903161103 | 21 | 192 | 0.0 | 1.6 | 0.00 | 0.00 | 0.00 | 67 | 1017.0 |
| 20260903160818 | 21 | 195 | 0.0 | 1.6 | 0.00 | 0.00 | 0.00 | 67 | 1016.7 |
| 20260903160801 | 21 | 217 | 1.6 | 1.6 | 0.00 | 0.00 | 0.00 | 66 | 1017.0 |
| 20260903160744 | 21 | 194 | 0.0 | 1.6 | 0.00 | 0.00 | 0.00 | 67 | 1016.9 |
| 20260903160723 | 21 | 194 | 0.0 | 1.6 | 0.00 | 0.00 | 0.00 | 67 | 1016.8 |
| 20260903160440 | 21 | 194 | 0.0 | 1.6 | 0.00 | 0.00 | 0.00 | 67 | 1016.9 |
| 20260903160422 | 21 | 190 | 0.0 | 1.6 | 0.00 | 0.00 | 0.00 | 67 | 1016.7 |
| 20260903160147 | 21 | 149 | 0.0 | 1.6 | 0.00 | 0.00 | 0.00 | 67 | 1016.6 |
| 20260903160130 | 21 | 197 | 0.0 | 1.6 | 0.00 | 0.00 | 0.00 | 66 | 1016.8 |
| 20260903160106 | 21 | 203 | 0.0 | 1.6 | 0.00 | 0.00 | 0.00 | 66 | 1016.7 |
| 20260903155535 | 21 | 202 | 0.0 | 1.6 | 0.00 | 0.00 | 0.00 | 66 | 1016.9 |
| 20260903155435 | 21 | 202 | 0.0 | 1.6 | 0.00 | 0.00 | 0.00 | 65 | 1016.7 |
| 20260903155336 | 21 | 187 | 0.0 | 1.6 | 0.00 | 0.00 | 0.00 | 65 | 1016.9 |
| 20260903155235 | 21 | 193 | 0.0 | 1.6 | 0.00 | 0.00 | 0.00 | 65 | 1016.9 |
| 20260903155136 | 21 | 192 | 0.0 | 1.6 | 0.00 | 0.00 | 0.00 | 66 | 1016.9 |
| 20260903155035 | 21 | 176 | 0.0 | 1.6 | 0.00 | 0.00 | 0.00 | 65 | 1016.7 |
| 20260903154935 | 21 | 192 | 0.0 | 1.6 | 0.00 | 0.00 | 0.00 | 66 | 1016.9 |
| 20260903154835 | 21 | 188 | 0.0 | 1.6 | 0.00 | 0.00 | 0.00 | 65 | 1016.8 |
| 20260903154811 | 21 | 196 | 0.0 | 1.6 | 0.00 | 0.00 | 0.00 | 66 | 1017.0 |
| 20260903154755 | 21 | 213 | 0.0 | 1.6 | 0.00 | 0.00 | 0.00 | 66 | 1016.7 |
| 20260903154435 | 21 | 193 | 0.0 | 1.6 | 0.00 | 0.00 | 0.00 | 66 | 1016.9 |
| 20260903154335 | 21 | 192 | 0.0 | 1.6 | 0.00 | 0.00 | 0.00 | 66 | 1016.9 |
| 20260903154236 | 21 | 192 | 0.0 | 1.6 | 0.00 | 0.00 | 0.00 | 66 | 1016.9 |
| 20260903154136 | 21 | 189 | 0.0 | 1.6 | 0.00 | 0.00 | 0.00 | 66 | 1016.8 |
| 20260903154040 | 21 | 171 | 1.6 | 1.6 | 0.00 | 0.00 | 0.00 | 66 | 1016.8 |
| 20260903154023 | 21 | 181 | 0.0 | 1.6 | 0.00 | 0.00 | 0.00 | 65 | 1016.6 |
| 20260903154006 | 21 | 195 | 0.0 | 1.6 | 0.00 | 0.00 | 0.00 | 65 | 1017.0 |
| 20260903153736 | 21 | 199 | 0.0 | 1.6 | 0.00 | 0.00 | 0.00 | 65 | 1017.1 |
| 20260903153636 | 21 | 195 | 0.0 | 1.6 | 0.00 | 0.00 | 0.00 | 65 | 1016.9 |
| 20260903153537 | 21 | 195 | 0.0 | 1.6 | 0.00 | 0.00 | 0.00 | 65 | 1017.1 |
| 20260903153435 | 21 | 193 | 0.0 | 3.2 | 0.00 | 0.00 | 0.00 | 65 | 1016.8 |
| 20260903153335 | 21 | 191 | 0.0 | 3.2 | 0.00 | 0.00 | 0.00 | 65 | 1017.0 |
| 20260903153235 | 21 | 192 | 0.0 | 3.2 | 0.00 | 0.00 | 0.00 | 66 | 1016.8 |
| 20260903153135 | 21 | 192 | 0.0 | 3.2 | 0.00 | 0.00 | 0.00 | 65 | 1017.0 |
| 20260903153036 | 21 | 192 | 0.0 | 3.2 | 0.00 | 0.00 | 0.00 | 66 | 1017.0 |
| 20260903152936 | 21 | 192 | 0.0 | 3.2 | 0.00 | 0.00 | 0.00 | 66 | 1017.1 |
| 20260903152911 | 22 | 196 | 0.0 | 1.6 | 0.00 | 0.00 | 0.00 | 64 | 1017.0 |
| 20260903152906 | 22 | 194 | 0.0 | 1.6 | 0.00 | 0.00 | 0.00 | 66 | 1016.9 |
| 20260903152859 | 22 | 198 | 0.0 | 4.8 | 0.00 | 0.00 | 0.00 | 65 | 1016.9 |
| 20260903152855 | 22 | 200 | 0.0 | 4.8 | 0.00 | 0.00 | 0.00 | 64 | 1016.9 |
| 20260903152847 | 21 | 187 | 0.0 | 3.2 | 0.00 | 0.00 | 0.00 | 66 | 1016.9 |
| 20260903152822 | 21 | 200 | 0.0 | 3.2 | 0.00 | 0.00 | 0.00 | 66 | 1017.0 |
| 20260903152805 | 21 | 195 | 0.0 | 3.2 | 0.00 | 0.00 | 0.00 | 65 | 1017.2 |
| 20260903152750 | 21 | 188 | 0.0 | 3.2 | 0.00 | 0.00 | 0.00 | 65 | 1016.9 |
| 20260903152734 | 22 | 192 | 0.0 | 3.2 | 0.00 | 0.00 | 0.00 | 65 | 1017.0 |
| 20260903152246 | 22 | 191 | 0.0 | 3.2 | 0.00 | 0.00 | 0.00 | 65 | 1016.9 |
| 20260903152231 | 22 | 188 | 0.0 | 3.2 | 0.00 | 0.00 | 0.00 | 66 | 1017.1 |
| 20260903152215 | 22 | 193 | 0.0 | 3.2 | 0.00 | 0.00 | 0.00 | 66 | 1017.1 |
| 20260903151939 | 22 | 193 | 0.0 | 1.6 | 0.00 | 0.00 | 0.00 | 66 | 1017.2 |
| 20260903151915 | 22 | 190 | 0.0 | 1.6 | 0.00 | 0.00 | 0.00 | 65 | 1016.9 |
| 20260903151651 | 22 | 191 | 0.0 | 3.2 | 0.00 | 0.00 | 0.00 | 64 | 1017.1 |
| 20260903151645 | 22 | 194 | 0.0 | 1.6 | 0.00 | 0.00 | 0.00 | 63 | 1017.2 |
| 20260903151640 | 22 | 196 | 0.0 | 1.6 | 0.00 | 0.00 | 0.00 | 65 | 1016.8 |
| 20260903151624 | 22 | 210 | 0.0 | 1.6 | 0.00 | 0.00 | 0.00 | 65 | 1017.0 |
| 20260903151608 | 22 | 193 | 0.0 | 1.6 | 0.00 | 0.00 | 0.00 | 65 | 1016.8 |
| 20260903151553 | 22 | 190 | 0.0 | 1.6 | 0.00 | 0.00 | 0.00 | 65 | 1016.9 |
| 20260903151530 | 22 | 188 | 0.0 | 1.6 | 0.00 | 0.00 | 0.00 | 65 | 1017.1 |
| 20260903151034 | 22 | 152 | 1.6 | 1.6 | 0.00 | 0.00 | 0.00 | 65 | 1016.9 |
| 20260903151018 | 22 | 164 | 1.6 | 1.6 | 0.00 | 0.00 | 0.00 | 65 | 1017.1 |
| 20260903150954 | 22 | 194 | 0.0 | 1.6 | 0.00 | 0.00 | 0.00 | 66 | 1016.9 |
| 20260903150938 | 22 | 204 | 0.0 | 1.6 | 0.00 | 0.00 | 0.00 | 66 | 1017.0 |
| 20260903150917 | 22 | 198 | 0.0 | 1.6 | 0.00 | 0.00 | 0.00 | 66 | 1017.1 |
| 20260903150641 | 22 | 198 | 0.0 | 1.6 | 0.00 | 0.00 | 0.00 | 66 | 1016.9 |
| 20260903150619 | 22 | 194 | 0.0 | 1.6 | 0.00 | 0.00 | 0.00 | 66 | 1016.9 |
| 20260903150351 | 22 | 194 | 0.0 | 1.6 | 0.00 | 0.00 | 0.00 | 66 | 1016.8 |
| 20260903150335 | 22 | 193 | 0.0 | 1.6 | 0.00 | 0.00 | 0.00 | 66 | 1017.0 |
| 20260903150320 | 22 | 196 | 0.0 | 1.6 | 0.00 | 0.00 | 0.00 | 66 | 1017.0 |
| 20260903150303 | 22 | 183 | 0.0 | 1.6 | 0.00 | 0.00 | 0.00 | 66 | 1016.8 |
| 20260903150239 | 22 | 179 | 0.0 | 1.6 | 0.00 | 0.00 | 0.00 | 66 | 1017.2 |
| 20260903150222 | 22 | 192 | 0.0 | 1.6 | 0.00 | 0.00 | 0.00 | 67 | 1017.0 |
| 20260903150206 | 22 | 194 | 0.0 | 1.6 | 0.00 | 0.00 | 0.00 | 66 | 1017.0 |
| 20260903150150 | 22 | 193 | 0.0 | 1.6 | 0.00 | 0.00 | 0.00 | 66 | 1016.9 |
| 20260903145905 | 22 | 118 | 0.0 | 1.6 | 0.00 | 0.00 | 0.00 | 67 | 1017.0 |
| 20260903145849 | 22 | 193 | 0.0 | 1.6 | 0.00 | 0.00 | 0.00 | 66 | 1016.9 |
| 20260903145833 | 22 | 192 | 0.0 | 4.8 | 0.00 | 0.00 | 0.00 | 66 | 1017.1 |
| 20260903145817 | 22 | 168 | 0.0 | 4.8 | 0.00 | 0.00 | 0.00 | 66 | 1016.8 |
| 20260903145801 | 22 | 201 | 0.0 | 4.8 | 0.00 | 0.00 | 0.00 | 66 | 1016.9 |
| 20260903145307 | 22 | 160 | 0.0 | 4.8 | 0.00 | 0.00 | 0.00 | 66 | 1017.2 |
| 20260903145252 | 22 | 199 | 0.0 | 4.8 | 0.00 | 0.00 | 0.00 | 65 | 1017.1 |
| 20260903145235 | 22 | 196 | 0.0 | 4.8 | 0.00 | 0.00 | 0.00 | 65 | 1016.9 |
| 20260903145219 | 22 | 202 | 0.0 | 4.8 | 0.00 | 0.00 | 0.00 | 65 | 1016.9 |
| 20260903145201 | 22 | 200 | 0.0 | 4.8 | 0.00 | 0.00 | 0.00 | 64 | 1016.9 |
| 20260903144936 | 22 | 202 | 0.0 | 4.8 | 0.00 | 0.00 | 0.00 | 64 | 1017.2 |
| 20260903144919 | 22 | 196 | 0.0 | 1.6 | 0.00 | 0.00 | 0.00 | 64 | 1017.0 |
| 20260903144643 | 22 | 194 | 0.0 | 1.6 | 0.00 | 0.00 | 0.00 | 64 | 1017.3 |
| 20260903144624 | 22 | 196 | 0.0 | 1.6 | 0.00 | 0.00 | 0.00 | 64 | 1017.0 |
| 20260903144359 | 22 | 203 | 0.0 | 3.2 | 0.00 | 0.00 | 0.00 | 64 | 1017.1 |
| 20260903144343 | 22 | 209 | 0.0 | 3.2 | 0.00 | 0.00 | 0.00 | 64 | 1017.1 |
| 20260903144326 | 22 | 197 | 0.0 | 3.2 | 0.00 | 0.00 | 0.00 | 64 | 1017.2 |
| 20260903144310 | 22 | 192 | 0.0 | 3.2 | 0.00 | 0.00 | 0.00 | 64 | 1017.0 |
| 20260903144253 | 22 | 191 | 0.0 | 3.2 | 0.00 | 0.00 | 0.00 | 64 | 1017.1 |
| 20260903143808 | 22 | 201 | 0.0 | 3.2 | 0.00 | 0.00 | 0.00 | 64 | 1016.8 |
| 20260903143530 | 22 | 199 | 0.0 | 3.2 | 0.00 | 0.00 | 0.00 | 64 | 1017.0 |
| 20260903143506 | 22 | 204 | 0.0 | 3.2 | 0.00 | 0.00 | 0.00 | 64 | 1017.1 |
| 20260903143451 | 22 | 198 | 0.0 | 3.2 | 0.00 | 0.00 | 0.00 | 64 | 1017.1 |
| 20260903143435 | 22 | 124 | 0.0 | 3.2 | 0.00 | 0.00 | 0.00 | 64 | 1016.9 |
| 20260903143159 | 22 | 175 | 0.0 | 1.6 | 0.00 | 0.00 | 0.00 | 64 | 1017.1 |
| 20260903143137 | 22 | 196 | 0.0 | 1.6 | 0.00 | 0.00 | 0.00 | 64 | 1017.2 |
| 20260903142901 | 22 | 189 | 0.0 | 1.6 | 0.00 | 0.00 | 0.00 | 63 | 1017.1 |
| 20260903142845 | 22 | 195 | 0.0 | 1.6 | 0.00 | 0.00 | 0.00 | 64 | 1017.2 |
| 20260903142830 | 22 | 200 | 0.0 | 3.2 | 0.00 | 0.00 | 0.00 | 63 | 1017.1 |
| 20260903142602 | 22 | 196 | 0.0 | 3.2 | 0.00 | 0.00 | 0.00 | 64 | 1017.2 |
| 20260903142545 | 22 | 194 | 0.0 | 3.2 | 0.00 | 0.00 | 0.00 | 64 | 1017.1 |
| 20260903142310 | 22 | 181 | 0.0 | 3.2 | 0.00 | 0.00 | 0.00 | 64 | 1017.5 |
| 20260903141823 | 22 | 191 | 0.0 | 3.2 | 0.00 | 0.00 | 0.00 | 65 | 1017.5 |
| 20260903141806 | 22 | 159 | 0.0 | 3.2 | 0.00 | 0.00 | 0.00 | 64 | 1017.4 |
| 20260903141529 | 22 | 191 | 0.0 | 3.2 | 0.00 | 0.00 | 0.00 | 64 | 1017.1 |
| 20260903141248 | 22 | 194 | 0.0 | 1.6 | 0.00 | 0.00 | 0.00 | 63 | 1017.2 |
| 20260903141021 | 22 | 196 | 0.0 | 1.6 | 0.00 | 0.00 | 0.00 | 63 | 1017.4 |
| 20260903140746 | 22 | 184 | 0.0 | 1.6 | 0.00 | 0.00 | 0.00 | 63 | 1017.3 |
| 20260903140259 | 22 | 195 | 0.0 | 3.2 | 0.00 | 0.00 | 0.00 | 63 | 1017.3 |
| 20260903140243 | 22 | 208 | 0.0 | 3.2 | 0.00 | 0.00 | 0.00 | 62 | 1017.1 |
| 20260903135923 | 22 | 193 | 0.0 | 3.2 | 0.00 | 0.00 | 0.00 | 62 | 1017.0 |
| 20260903135823 | 23 | 196 | 0.0 | 3.2 | 0.00 | 0.00 | 0.00 | 62 | 1017.3 |
| 20260903135724 | 23 | 183 | 1.6 | 3.2 | 0.00 | 0.00 | 0.00 | 61 | 1017.3 |
| 20260903135523 | 23 | 196 | 0.0 | 3.2 | 0.00 | 0.00 | 0.00 | 60 | 1017.1 |
| 20260903135506 | 23 | 194 | 0.0 | 3.2 | 0.00 | 0.00 | 0.00 | 61 | 1017.3 |
| 20260903135451 | 23 | 213 | 0.0 | 3.2 | 0.00 | 0.00 | 0.00 | 61 | 1017.4 |
| 20260903135223 | 23 | 194 | 0.0 | 3.2 | 0.00 | 0.00 | 0.00 | 62 | 1017.2 |
| 20260903135158 | 23 | 199 | 0.0 | 3.2 | 0.00 | 0.00 | 0.00 | 62 | 1017.4 |
| 20260903135142 | 23 | 215 | 1.6 | 3.2 | 0.00 | 0.00 | 0.00 | 61 | 1017.3 |
| 20260903134825 | 23 | 192 | 0.0 | 3.2 | 0.00 | 0.00 | 0.00 | 61 | 1017.4 |
| 20260903134724 | 23 | 213 | 0.0 | 3.2 | 0.00 | 0.00 | 0.00 | 61 | 1017.0 |
| 20260903134623 | 23 | 198 | 0.0 | 3.2 | 0.00 | 0.00 | 0.00 | 60 | 1017.2 |
| 20260903134527 | 23 | 194 | 0.0 | 3.2 | 0.00 | 0.00 | 0.00 | 60 | 1017.3 |
| 20260903134523 | 23 | 196 | 0.0 | 3.2 | 0.00 | 0.00 | 0.00 | 61 | 1017.0 |
| 20260903134507 | 23 | 202 | 0.0 | 3.2 | 0.00 | 0.00 | 0.00 | 60 | 1017.2 |
| 20260903134451 | 23 | 196 | 0.0 | 3.2 | 0.00 | 0.00 | 0.00 | 60 | 1017.2 |
| 20260903134434 | 23 | 194 | 0.0 | 3.2 | 0.00 | 0.00 | 0.00 | 60 | 1017.3 |
| 20260903134124 | 23 | 203 | 0.0 | 6.4 | 0.00 | 0.00 | 0.00 | 59 | 1017.2 |
| 20260903134023 | 23 | 198 | 0.0 | 6.4 | 0.00 | 0.00 | 0.00 | 59 | 1017.2 |
| 20260903133922 | 23 | 188 | 0.0 | 6.4 | 0.00 | 0.00 | 0.00 | 59 | 1017.2 |
| 20260903133823 | 23 | 196 | 0.0 | 6.4 | 0.00 | 0.00 | 0.00 | 59 | 1017.4 |
| 20260903133723 | 23 | 198 | 0.0 | 6.4 | 0.00 | 0.00 | 0.00 | 60 | 1017.2 |
| 20260903133700 | 23 | 199 | 0.0 | 6.4 | 0.00 | 0.00 | 0.00 | 60 | 1017.0 |
| 20260903133644 | 23 | 198 | 0.0 | 6.4 | 0.00 | 0.00 | 0.00 | 60 | 1017.1 |